Wetterdaten: Donnerstag, 30.08.2018
Datum Zeit Temp. Aussen Temp. o. S. +5cm Feuchte Auss Luftdruck Regen Sonnenschein Regendauer Solar Windben Empfang
30.08.2018 00:00 15,8 C 14,4 C 14,4 C 96 % 1012,5 hPa 0,0 l/m 0 min 2 min 0 W/m 15,8 km/h (3 Bft) 95,74 %
30.08.2018 00:02 15,7 C 14,4 C 14,4 C 96 % 1012,5 hPa 0,0 l/m 0 min 2 min 0 W/m 13,5 km/h (3 Bft) 95,12 %
30.08.2018 00:04 15,7 C 14,4 C 14,4 C 96 % 1012,7 hPa 0,0 l/m 0 min 2 min 0 W/m 24,8 km/h (4 Bft) 95,74 %
30.08.2018 00:08 15,6 C 14,4 C 14,4 C 96 % 1012,6 hPa 0,0 l/m 0 min 4 min 0 W/m 20,3 km/h (4 Bft) 95,74 %
30.08.2018 00:10 15,5 C 14,4 C 13,9 C 96 % 1012,6 hPa 0,2 l/m 0 min 2 min 0 W/m 13,5 km/h (3 Bft) 95,74 %
30.08.2018 00:12 15,5 C 14,4 C 13,9 C 96 % 1012,7 hPa 0,0 l/m 0 min 2 min 0 W/m 18,0 km/h (3 Bft) 95,74 %
30.08.2018 00:14 15,4 C 13,9 C 13,9 C 96 % 1012,8 hPa 0,2 l/m 0 min 2 min 0 W/m 15,8 km/h (3 Bft) 95,65 %
30.08.2018 00:16 15,4 C 13,9 C 13,9 C 96 % 1012,8 hPa 0,2 l/m 0 min 2 min 0 W/m 18,0 km/h (3 Bft) 95,74 %
30.08.2018 00:18 15,4 C 13,9 C 13,9 C 96 % 1012,8 hPa 0,2 l/m 0 min 2 min 0 W/m 13,5 km/h (3 Bft) 95,74 %
30.08.2018 00:20 15,4 C 13,9 C 13,9 C 96 % 1012,8 hPa 0,2 l/m 0 min 2 min 0 W/m 24,8 km/h (4 Bft) 95,74 %
30.08.2018 00:22 15,3 C 13,9 C 13,9 C 96 % 1012,9 hPa 0,4 l/m 0 min 2 min 0 W/m 13,5 km/h (3 Bft) 93,62 %
30.08.2018 00:24 15,3 C 13,9 C 13,9 C 96 % 1013,0 hPa 0,2 l/m 0 min 2 min 0 W/m 15,8 km/h (3 Bft) 97,87 %
30.08.2018 00:26 15,3 C 13,9 C 13,9 C 96 % 1013,0 hPa 0,2 l/m 0 min 2 min 0 W/m 13,5 km/h (3 Bft) 95,65 %
30.08.2018 00:28 15,3 C 13,9 C 13,9 C 96 % 1013,0 hPa 0,0 l/m 0 min 2 min 0 W/m 15,8 km/h (3 Bft) 97,87 %
30.08.2018 00:30 15,3 C 13,9 C 13,9 C 96 % 1013,1 hPa 0,0 l/m 0 min 2 min 0 W/m 24,8 km/h (4 Bft) 100,00 %
30.08.2018 00:32 15,2 C 13,9 C 13,9 C 96 % 1013,1 hPa 0,2 l/m 0 min 2 min 0 W/m 18,0 km/h (3 Bft) 100,00 %
30.08.2018 00:34 15,2 C 13,9 C 13,9 C 96 % 1013,1 hPa 0,2 l/m 0 min 2 min 0 W/m 15,8 km/h (3 Bft) 100,00 %
30.08.2018 00:36 15,2 C 13,9 C 13,9 C 96 % 1013,1 hPa 0,0 l/m 0 min 2 min 0 W/m 9,0 km/h (2 Bft) 100,00 %
30.08.2018 00:38 15,1 C 13,9 C 13,9 C 97 % 1013,2 hPa 0,2 l/m 0 min 2 min 0 W/m 11,3 km/h (2 Bft) 97,87 %
30.08.2018 00:40 15,1 C 13,9 C 13,9 C 97 % 1013,2 hPa 0,0 l/m 0 min 2 min 0 W/m 15,8 km/h (3 Bft) 100,00 %
30.08.2018 00:42 15,1 C 13,9 C 13,9 C 97 % 1013,3 hPa 0,0 l/m 0 min 2 min 0 W/m 13,5 km/h (3 Bft) 100,00 %
30.08.2018 00:44 15,1 C 13,9 C 13,9 C 97 % 1013,3 hPa 0,0 l/m 0 min 2 min 0 W/m 13,5 km/h (3 Bft) 100,00 %
30.08.2018 00:46 15,1 C 13,9 C 13,9 C 97 % 1013,4 hPa 0,2 l/m 0 min 2 min 0 W/m 11,3 km/h (2 Bft) 97,87 %
30.08.2018 00:48 15,0 C 13,9 C 13,9 C 97 % 1013,4 hPa 0,0 l/m 0 min 2 min 0 W/m 9,0 km/h (2 Bft) 100,00 %
30.08.2018 00:50 15,0 C 13,9 C 13,9 C 97 % 1013,4 hPa 0,0 l/m 0 min 2 min 0 W/m 13,5 km/h (3 Bft) 100,00 %
30.08.2018 00:52 15,0 C 13,9 C 13,9 C 97 % 1013,3 hPa 0,0 l/m 0 min 2 min 0 W/m 15,8 km/h (3 Bft) 100,00 %
30.08.2018 00:54 15,0 C 13,9 C 13,9 C 97 % 1013,5 hPa 0,0 l/m 0 min 2 min 0 W/m 13,5 km/h (3 Bft) 100,00 %
30.08.2018 00:56 15,0 C 13,9 C 13,9 C 97 % 1013,5 hPa 0,0 l/m 0 min 2 min 0 W/m 20,3 km/h (4 Bft) 100,00 %
30.08.2018 00:58 14,9 C 13,9 C 13,9 C 97 % 1013,5 hPa 0,0 l/m 0 min 2 min 0 W/m 15,8 km/h (3 Bft) 100,00 %
30.08.2018 01:00 14,9 C 13,9 C 13,9 C 97 % 1013,5 hPa 0,0 l/m 0 min 2 min 0 W/m 11,3 km/h (2 Bft) 97,83 %
30.08.2018 01:02 14,9 C 13,9 C 13,9 C 97 % 1013,5 hPa 0,0 l/m 0 min 2 min 0 W/m 11,3 km/h (2 Bft) 100,00 %
30.08.2018 01:04 14,9 C 13,9 C 13,9 C 97 % 1013,5 hPa 0,0 l/m 0 min 2 min 0 W/m 11,3 km/h (2 Bft) 97,87 %
30.08.2018 01:06 14,9 C 13,9 C 13,9 C 97 % 1013,5 hPa 0,0 l/m 0 min 2 min 0 W/m 20,3 km/h (4 Bft) 97,87 %
30.08.2018 01:08 14,9 C 13,9 C 13,9 C 97 % 1013,6 hPa 0,0 l/m 0 min 2 min 0 W/m 9,0 km/h (2 Bft) 100,00 %
30.08.2018 01:10 14,9 C 13,9 C 13,9 C 97 % 1013,5 hPa 0,2 l/m 0 min 2 min 0 W/m 9,0 km/h (2 Bft) 97,87 %
30.08.2018 01:12 14,9 C 13,9 C 13,9 C 97 % 1013,6 hPa 0,0 l/m 0 min 2 min 0 W/m 9,0 km/h (2 Bft) 97,83 %
30.08.2018 01:14 14,9 C 13,9 C 13,9 C 97 % 1013,5 hPa 0,0 l/m 0 min 2 min 0 W/m 9,0 km/h (2 Bft) 95,74 %
30.08.2018 01:16 14,9 C 13,9 C 13,9 C 97 % 1013,6 hPa 0,0 l/m 0 min 2 min 0 W/m 13,5 km/h (3 Bft) 97,87 %
30.08.2018 01:18 14,9 C 13,9 C 13,9 C 97 % 1013,6 hPa 0,0 l/m 0 min 2 min 0 W/m 4,5 km/h (1 Bft) 97,87 %
30.08.2018 01:20 14,9 C 13,9 C 13,9 C 97 % 1013,6 hPa 0,0 l/m 0 min 2 min 0 W/m 9,0 km/h (2 Bft) 97,87 %
30.08.2018 01:22 14,9 C 13,9 C 13,9 C 97 % 1013,6 hPa 0,0 l/m 0 min 2 min 0 W/m 9,0 km/h (2 Bft) 97,83 %
30.08.2018 01:24 14,9 C 13,9 C 13,9 C 97 % 1013,6 hPa 0,0 l/m 0 min 2 min 0 W/m 9,0 km/h (2 Bft) 97,87 %
30.08.2018 01:26 14,9 C 13,9 C 13,9 C 97 % 1013,7 hPa 0,0 l/m 0 min 0 min 0 W/m 15,8 km/h (3 Bft) 97,87 %
30.08.2018 01:28 14,9 C 13,9 C 13,9 C 97 % 1013,7 hPa 0,0 l/m 0 min 2 min 0 W/m 4,5 km/h (1 Bft) 97,87 %
30.08.2018 01:30 14,9 C 13,9 C 13,9 C 97 % 1013,8 hPa 0,0 l/m 0 min 2 min 0 W/m 9,0 km/h (2 Bft) 97,87 %
30.08.2018 01:32 14,9 C 13,9 C 13,9 C 97 % 1013,8 hPa 0,0 l/m 0 min 2 min 0 W/m 9,0 km/h (2 Bft) 95,74 %
30.08.2018 01:34 14,8 C 13,9 C 13,3 C 97 % 1013,9 hPa 0,0 l/m 0 min 2 min 0 W/m 13,5 km/h (3 Bft) 97,87 %
30.08.2018 01:36 14,8 C 13,9 C 13,3 C 97 % 1014,0 hPa 0,0 l/m 0 min 0 min 0 W/m 15,8 km/h (3 Bft) 95,65 %
30.08.2018 01:38 14,8 C 13,9 C 13,3 C 97 % 1014,1 hPa 0,0 l/m 0 min 0 min 0 W/m 9,0 km/h (2 Bft) 97,87 %
30.08.2018 01:40 14,7 C 13,9 C 13,3 C 97 % 1014,1 hPa 0,0 l/m 0 min 0 min 0 W/m 13,5 km/h (3 Bft) 97,87 %
30.08.2018 01:42 14,7 C 13,9 C 13,3 C 97 % 1014,1 hPa 0,0 l/m 0 min 0 min 0 W/m 18,0 km/h (3 Bft) 97,87 %
30.08.2018 01:44 14,7 C 13,3 C 13,3 C 97 % 1014,1 hPa 0,0 l/m 0 min 0 min 0 W/m 15,8 km/h (3 Bft) 97,87 %
30.08.2018 01:46 14,7 C 13,3 C 13,3 C 97 % 1014,2 hPa 0,0 l/m 0 min 0 min 0 W/m 15,8 km/h (3 Bft) 97,83 %
30.08.2018 01:48 14,6 C 13,3 C 13,3 C 97 % 1014,2 hPa 0,0 l/m 0 min 2 min 0 W/m 13,5 km/h (3 Bft) 95,74 %
30.08.2018 01:50 14,6 C 13,3 C 13,3 C 97 % 1014,3 hPa 0,0 l/m 0 min 0 min 0 W/m 18,0 km/h (3 Bft) 97,87 %
30.08.2018 01:52 14,6 C 13,3 C 13,3 C 97 % 1014,3 hPa 0,0 l/m 0 min 0 min 0 W/m 11,3 km/h (2 Bft) 97,87 %
30.08.2018 01:54 14,5 C 13,3 C 13,3 C 97 % 1014,3 hPa 0,0 l/m 0 min 0 min 0 W/m 15,8 km/h (3 Bft) 97,87 %
30.08.2018 01:56 14,4 C 13,3 C 13,3 C 97 % 1014,3 hPa 0,0 l/m 0 min 0 min 0 W/m 11,3 km/h (2 Bft) 100,00 %
30.08.2018 01:58 14,4 C 13,3 C 13,3 C 97 % 1014,4 hPa 0,0 l/m 0 min 0 min 0 W/m 18,0 km/h (3 Bft) 100,00 %
30.08.2018 02:00 14,4 C 13,3 C 13,3 C 97 % 1014,3 hPa 0,0 l/m 0 min 0 min 0 W/m 18,0 km/h (3 Bft) 100,00 %
30.08.2018 02:02 14,4 C 13,3 C 13,3 C 97 % 1014,4 hPa 0,0 l/m 0 min 0 min 0 W/m 11,3 km/h (2 Bft) 100,00 %
30.08.2018 02:04 14,4 C 13,3 C 13,3 C 97 % 1014,5 hPa 0,0 l/m 0 min 0 min 0 W/m 11,3 km/h (2 Bft) 97,87 %
30.08.2018 02:06 14,3 C 13,3 C 13,3 C 97 % 1014,6 hPa 0,0 l/m 0 min 0 min 0 W/m 13,5 km/h (3 Bft) 100,00 %
30.08.2018 02:08 14,3 C 13,3 C 13,3 C 97 % 1014,6 hPa 0,0 l/m 0 min 0 min 0 W/m 2,3 km/h (1 Bft) 100,00 %
30.08.2018 02:10 14,3 C 13,3 C 13,3 C 97 % 1014,6 hPa 0,0 l/m 0 min 0 min 0 W/m 6,8 km/h (2 Bft) 100,00 %
30.08.2018 02:12 14,3 C 13,3 C 13,3 C 97 % 1014,6 hPa 0,0 l/m 0 min 0 min 0 W/m 9,0 km/h (2 Bft) 97,87 %
30.08.2018 02:14 14,4 C 13,3 C 13,3 C 97 % 1014,6 hPa 0,0 l/m 0 min 0 min 0 W/m 6,8 km/h (2 Bft) 97,87 %
30.08.2018 02:16 14,4 C 13,3 C 13,3 C 97 % 1014,7 hPa 0,0 l/m 0 min 0 min 0 W/m 4,5 km/h (1 Bft) 97,87 %
30.08.2018 02:18 14,4 C 13,9 C 13,3 C 97 % 1014,6 hPa 0,0 l/m 0 min 0 min 0 W/m 6,8 km/h (2 Bft) 100,00 %
30.08.2018 02:20 14,4 C 13,9 C 13,3 C 97 % 1014,7 hPa 0,0 l/m 0 min 0 min 0 W/m 9,0 km/h (2 Bft) 97,87 %
30.08.2018 02:22 14,4 C 13,9 C 13,3 C 97 % 1014,7 hPa 0,0 l/m 0 min 0 min 0 W/m 11,3 km/h (2 Bft) 97,83 %
30.08.2018 02:24 14,4 C 13,9 C 13,3 C 98 % 1014,7 hPa 0,0 l/m 0 min 0 min 0 W/m 6,8 km/h (2 Bft) 97,87 %
30.08.2018 02:26 14,4 C 13,9 C 13,3 C 98 % 1014,7 hPa 0,0 l/m 0 min 0 min 0 W/m 11,3 km/h (2 Bft) 100,00 %
30.08.2018 02:28 14,4 C 13,9 C 13,3 C 98 % 1014,7 hPa 0,0 l/m 0 min 0 min 0 W/m 9,0 km/h (2 Bft) 100,00 %
30.08.2018 02:30 14,4 C 13,9 C 13,3 C 98 % 1014,7 hPa 0,0 l/m 0 min 0 min 0 W/m 13,5 km/h (3 Bft) 100,00 %
30.08.2018 02:32 14,5 C 13,9 C 13,3 C 98 % 1014,8 hPa 0,0 l/m 0 min 0 min 0 W/m 11,3 km/h (2 Bft) 97,87 %
30.08.2018 02:34 14,5 C 13,9 C 13,3 C 98 % 1014,8 hPa 0,0 l/m 0 min 0 min 0 W/m 6,8 km/h (2 Bft) 97,83 %
30.08.2018 02:36 14,5 C 13,9 C 13,3 C 98 % 1014,8 hPa 0,0 l/m 0 min 0 min 0 W/m 2,3 km/h (1 Bft) 100,00 %
30.08.2018 02:38 14,5 C 13,9 C 13,3 C 98 % 1014,8 hPa 0,0 l/m 0 min 0 min 0 W/m 6,8 km/h (2 Bft) 95,74 %
30.08.2018 02:40 14,5 C 13,9 C 13,3 C 98 % 1014,8 hPa 0,0 l/m 0 min 0 min 0 W/m 11,3 km/h (2 Bft) 97,87 %
30.08.2018 02:42 14,5 C 13,9 C 13,3 C 98 % 1014,9 hPa 0,0 l/m 0 min 0 min 0 W/m 9,0 km/h (2 Bft) 95,74 %
30.08.2018 02:44 14,5 C 13,9 C 13,3 C 98 % 1015,0 hPa 0,0 l/m 0 min 0 min 0 W/m 4,5 km/h (1 Bft) 95,74 %
30.08.2018 02:46 14,5 C 13,9 C 13,3 C 98 % 1015,0 hPa 0,0 l/m 0 min 0 min 0 W/m 9,0 km/h (2 Bft) 97,87 %
30.08.2018 02:48 14,5 C 13,9 C 13,3 C 98 % 1015,0 hPa 0,0 l/m 0 min 0 min 0 W/m 9,0 km/h (2 Bft) 97,87 %
30.08.2018 02:50 14,5 C 13,9 C 13,3 C 98 % 1015,1 hPa 0,0 l/m 0 min 0 min 0 W/m 6,8 km/h (2 Bft) 97,87 %
30.08.2018 02:52 14,5 C 13,9 C 13,3 C 98 % 1015,0 hPa 0,0 l/m 0 min 0 min 0 W/m 9,0 km/h (2 Bft) 97,87 %
30.08.2018 02:54 14,5 C 13,9 C 13,3 C 98 % 1015,0 hPa 0,0 l/m 0 min 0 min 0 W/m 0,0 km/h (0 Bft) 97,87 %
30.08.2018 02:56 14,5 C 13,9 C 13,3 C 98 % 1015,0 hPa 0,0 l/m 0 min 0 min 0 W/m 9,0 km/h (2 Bft) 100,00 %
30.08.2018 02:58 14,5 C 13,9 C 13,3 C 98 % 1015,0 hPa 0,0 l/m 0 min 0 min 0 W/m 6,8 km/h (2 Bft) 97,87 %
30.08.2018 03:00 14,5 C 13,9 C 13,3 C 98 % 1015,1 hPa 0,0 l/m 0 min 0 min 0 W/m 4,5 km/h (1 Bft) 97,87 %
30.08.2018 03:02 14,5 C 13,9 C 13,3 C 98 % 1015,0 hPa 0,0 l/m 0 min 0 min 0 W/m 6,8 km/h (2 Bft) 95,74 %
30.08.2018 03:04 14,5 C 13,9 C 13,3 C 98 % 1015,0 hPa 0,0 l/m 0 min 0 min 0 W/m 4,5 km/h (1 Bft) 95,74 %
30.08.2018 03:06 14,5 C 13,9 C 13,3 C 98 % 1015,0 hPa 0,0 l/m 0 min 0 min 0 W/m 6,8 km/h (2 Bft) 95,65 %
30.08.2018 03:08 14,5 C 13,9 C 13,3 C 98 % 1015,1 hPa 0,0 l/m 0 min 0 min 0 W/m 4,5 km/h (1 Bft) 95,74 %
30.08.2018 03:10 14,5 C 13,9 C 13,3 C 98 % 1015,1 hPa 0,0 l/m 0 min 0 min 0 W/m 4,5 km/h (1 Bft) 95,74 %
30.08.2018 03:12 14,5 C 13,9 C 13,3 C 98 % 1015,1 hPa 0,0 l/m 0 min 0 min 0 W/m 2,3 km/h (1 Bft) 93,62 %
30.08.2018 03:14 14,5 C 13,9 C 13,3 C 98 % 1015,2 hPa 0,0 l/m 0 min 0 min 0 W/m 2,3 km/h (1 Bft) 95,74 %
30.08.2018 03:16 14,5 C 13,9 C 13,3 C 98 % 1015,2 hPa 0,0 l/m 0 min 0 min 0 W/m 2,3 km/h (1 Bft) 95,74 %
30.08.2018 03:18 14,5 C 13,9 C 13,3 C 98 % 1015,2 hPa 0,0 l/m 0 min 0 min 0 W/m 2,3 km/h (1 Bft) 97,83 %
30.08.2018 03:20 14,5 C 13,9 C 13,3 C 98 % 1015,3 hPa 0,0 l/m 0 min 0 min 0 W/m 4,5 km/h (1 Bft) 95,74 %
30.08.2018 03:22 14,5 C 13,9 C 13,3 C 98 % 1015,2 hPa 0,0 l/m 0 min 0 min 0 W/m 0,0 km/h (0 Bft) 93,62 %
30.08.2018 03:24 14,5 C 13,9 C 13,3 C 98 % 1015,2 hPa 0,0 l/m 0 min 0 min 0 W/m 2,3 km/h (1 Bft) 95,74 %
30.08.2018 03:26 14,5 C 13,9 C 13,3 C 98 % 1015,2 hPa 0,0 l/m 0 min 0 min 0 W/m 6,8 km/h (2 Bft) 97,87 %
30.08.2018 03:28 14,5 C 13,9 C 13,3 C 98 % 1015,2 hPa 0,0 l/m 0 min 0 min 0 W/m 2,3 km/h (1 Bft) 97,87 %
30.08.2018 03:30 14,5 C 13,9 C 13,3 C 98 % 1015,3 hPa 0,0 l/m 0 min 0 min 0 W/m 2,3 km/h (1 Bft) 97,83 %
30.08.2018 03:32 14,5 C 13,9 C 13,3 C 98 % 1015,3 hPa 0,0 l/m 0 min 0 min 0 W/m 9,0 km/h (2 Bft) 97,87 %
30.08.2018 03:34 14,5 C 13,9 C 13,3 C 98 % 1015,4 hPa 0,0 l/m 0 min 0 min 0 W/m 6,8 km/h (2 Bft) 97,87 %
30.08.2018 03:36 14,5 C 13,9 C 13,3 C 98 % 1015,4 hPa 0,0 l/m 0 min 0 min 0 W/m 2,3 km/h (1 Bft) 97,87 %
30.08.2018 03:38 14,4 C 13,9 C 13,3 C 98 % 1015,4 hPa 0,0 l/m 0 min 0 min 0 W/m 2,3 km/h (1 Bft) 100,00 %
30.08.2018 03:40 14,5 C 13,9 C 13,3 C 98 % 1015,4 hPa 0,0 l/m 0 min 0 min 0 W/m 0,0 km/h (0 Bft) 97,87 %
30.08.2018 03:42 14,5 C 13,9 C 13,3 C 98 % 1015,4 hPa 0,0 l/m 0 min 0 min 0 W/m 9,0 km/h (2 Bft) 97,83 %
30.08.2018 03:44 14,5 C 13,9 C 13,3 C 98 % 1015,4 hPa 0,0 l/m 0 min 0 min 0 W/m 4,5 km/h (1 Bft) 97,87 %
30.08.2018 03:46 14,5 C 13,9 C 13,3 C 98 % 1015,4 hPa 0,0 l/m 0 min 0 min 0 W/m 4,5 km/h (1 Bft) 95,74 %
30.08.2018 03:48 14,5 C 13,9 C 13,3 C 98 % 1015,4 hPa 0,0 l/m 0 min 0 min 0 W/m 2,3 km/h (1 Bft) 95,74 %
30.08.2018 03:50 14,5 C 13,9 C 13,3 C 98 % 1015,4 hPa 0,0 l/m 0 min 0 min 0 W/m 2,3 km/h (1 Bft) 95,74 %
30.08.2018 03:52 14,5 C 13,9 C 13,3 C 98 % 1015,5 hPa 0,0 l/m 0 min 0 min 0 W/m 4,5 km/h (1 Bft) 97,87 %
30.08.2018 03:54 14,5 C 13,9 C 13,3 C 98 % 1015,5 hPa 0,0 l/m 0 min 0 min 0 W/m 4,5 km/h (1 Bft) 95,65 %
30.08.2018 03:56 14,5 C 13,9 C 13,3 C 98 % 1015,5 hPa 0,0 l/m 0 min 0 min 0 W/m 6,8 km/h (2 Bft) 95,74 %
30.08.2018 03:58 14,5 C 13,9 C 13,3 C 98 % 1015,5 hPa 0,0 l/m 0 min 0 min 0 W/m 2,3 km/h (1 Bft) 97,87 %
30.08.2018 04:00 14,5 C 13,9 C 13,3 C 98 % 1015,5 hPa 0,0 l/m 0 min 0 min 0 W/m 6,8 km/h (2 Bft) 95,74 %
30.08.2018 04:02 14,5 C 13,9 C 13,3 C 98 % 1015,5 hPa 0,0 l/m 0 min 0 min 0 W/m 2,3 km/h (1 Bft) 100,00 %
30.08.2018 04:04 14,5 C 13,9 C 13,3 C 98 % 1015,5 hPa 0,0 l/m 0 min 0 min 0 W/m 4,5 km/h (1 Bft) 95,74 %
30.08.2018 04:06 14,5 C 13,9 C 13,3 C 98 % 1015,5 hPa 0,0 l/m 0 min 0 min 0 W/m 4,5 km/h (1 Bft) 95,74 %
30.08.2018 04:08 14,5 C 13,9 C 13,3 C 98 % 1015,5 hPa 0,0 l/m 0 min 0 min 0 W/m 4,5 km/h (1 Bft) 97,83 %
30.08.2018 04:10 14,5 C 13,9 C 13,3 C 98 % 1015,5 hPa 0,0 l/m 0 min 0 min 0 W/m 4,5 km/h (1 Bft) 95,74 %
30.08.2018 04:12 14,5 C 13,9 C 13,3 C 98 % 1015,6 hPa 0,0 l/m 0 min 0 min 0 W/m 2,3 km/h (1 Bft) 95,74 %
30.08.2018 04:14 14,5 C 13,9 C 13,3 C 98 % 1015,5 hPa 0,0 l/m 0 min 0 min 0 W/m 2,3 km/h (1 Bft) 97,87 %
30.08.2018 04:16 14,5 C 13,9 C 13,3 C 98 % 1015,6 hPa 0,0 l/m 0 min 0 min 0 W/m 0,0 km/h (0 Bft) 95,74 %
30.08.2018 04:18 14,4 C 13,9 C 13,3 C 98 % 1015,6 hPa 0,0 l/m 0 min 0 min 0 W/m 2,3 km/h (1 Bft) 97,87 %
30.08.2018 04:20 14,5 C 13,9 C 13,3 C 98 % 1015,5 hPa 0,0 l/m 0 min 0 min 0 W/m 0,0 km/h (0 Bft) 95,65 %
30.08.2018 04:22 14,5 C 13,9 C 13,3 C 98 % 1015,5 hPa 0,0 l/m 0 min 0 min 0 W/m 2,3 km/h (1 Bft) 97,87 %
30.08.2018 04:24 14,5 C 13,9 C 13,3 C 98 % 1015,5 hPa 0,0 l/m 0 min 0 min 0 W/m 4,5 km/h (1 Bft) 97,87 %
30.08.2018 04:26 14,4 C 13,9 C 13,3 C 98 % 1015,5 hPa 0,0 l/m 0 min 0 min 0 W/m 0,0 km/h (0 Bft) 95,74 %
30.08.2018 04:28 14,5 C 13,9 C 13,3 C 98 % 1015,5 hPa 0,0 l/m 0 min 0 min 0 W/m 2,3 km/h (1 Bft) 97,87 %
30.08.2018 04:30 14,5 C 13,9 C 13,3 C 98 % 1015,5 hPa 0,0 l/m 0 min 0 min 0 W/m 4,5 km/h (1 Bft) 97,87 %
30.08.2018 04:32 14,5 C 13,9 C 13,3 C 98 % 1015,5 hPa 0,0 l/m 0 min 0 min 0 W/m 4,5 km/h (1 Bft) 97,92 %
30.08.2018 04:34 14,4 C 13,9 C 13,3 C 98 % 1015,5 hPa 0,0 l/m 0 min 0 min 0 W/m 4,5 km/h (1 Bft) 97,87 %
30.08.2018 04:36 14,4 C 13,9 C 13,3 C 98 % 1015,5 hPa 0,0 l/m 0 min 0 min 0 W/m 4,5 km/h (1 Bft) 97,87 %
30.08.2018 04:38 14,4 C 13,9 C 13,3 C 98 % 1015,5 hPa 0,0 l/m 0 min 0 min 0 W/m 4,5 km/h (1 Bft) 97,87 %
30.08.2018 04:40 14,4 C 13,9 C 13,3 C 98 % 1015,5 hPa 0,0 l/m 0 min 0 min 0 W/m 4,5 km/h (1 Bft) 100,00 %
30.08.2018 04:42 14,4 C 13,9 C 13,3 C 98 % 1015,6 hPa 0,0 l/m 0 min 0 min 0 W/m 4,5 km/h (1 Bft) 100,00 %
30.08.2018 04:44 14,4 C 13,9 C 13,3 C 98 % 1015,5 hPa 0,0 l/m 0 min 0 min 0 W/m 2,3 km/h (1 Bft) 97,87 %
30.08.2018 04:46 14,4 C 13,9 C 13,3 C 98 % 1015,5 hPa 0,0 l/m 0 min 0 min 0 W/m 4,5 km/h (1 Bft) 100,00 %
30.08.2018 04:48 14,4 C 13,9 C 13,3 C 98 % 1015,6 hPa 0,0 l/m 0 min 0 min 0 W/m 0,0 km/h (0 Bft) 100,00 %
30.08.2018 04:50 14,4 C 13,9 C 13,3 C 98 % 1015,6 hPa 0,0 l/m 0 min 0 min 0 W/m 6,8 km/h (2 Bft) 100,00 %
30.08.2018 04:52 14,4 C 13,9 C 13,3 C 98 % 1015,7 hPa 0,0 l/m 0 min 0 min 0 W/m 4,5 km/h (1 Bft) 100,00 %
30.08.2018 04:54 14,4 C 13,9 C 13,3 C 98 % 1015,7 hPa 0,0 l/m 0 min 0 min 0 W/m 2,3 km/h (1 Bft) 97,83 %
30.08.2018 04:56 14,4 C 13,9 C 13,3 C 98 % 1015,7 hPa 0,0 l/m 0 min 0 min 0 W/m 2,3 km/h (1 Bft) 100,00 %
30.08.2018 04:58 14,4 C 13,9 C 13,3 C 98 % 1015,7 hPa 0,0 l/m 0 min 0 min 0 W/m 4,5 km/h (1 Bft) 100,00 %
30.08.2018 05:00 14,4 C 13,9 C 13,3 C 98 % 1015,8 hPa 0,0 l/m 0 min 0 min 0 W/m 2,3 km/h (1 Bft) 100,00 %
30.08.2018 05:02 14,4 C 13,9 C 13,3 C 98 % 1015,8 hPa 0,0 l/m 0 min 0 min 0 W/m 0,0 km/h (0 Bft) 100,00 %
30.08.2018 05:04 14,4 C 13,9 C 13,3 C 98 % 1015,8 hPa 0,0 l/m 0 min 0 min 0 W/m 4,5 km/h (1 Bft) 100,00 %
30.08.2018 05:06 14,4 C 13,9 C 13,3 C 98 % 1015,9 hPa 0,0 l/m 0 min 0 min 0 W/m 4,5 km/h (1 Bft) 100,00 %
30.08.2018 05:08 14,4 C 13,9 C 13,3 C 98 % 1016,0 hPa 0,0 l/m 0 min 0 min 0 W/m 2,3 km/h (1 Bft) 100,00 %
30.08.2018 05:10 14,4 C 13,9 C 13,3 C 98 % 1015,9 hPa 0,0 l/m 0 min 0 min 0 W/m 4,5 km/h (1 Bft) 97,87 %
30.08.2018 05:12 14,4 C 13,9 C 13,3 C 98 % 1016,0 hPa 0,0 l/m 0 min 0 min 0 W/m 4,5 km/h (1 Bft) 100,00 %
30.08.2018 05:14 14,4 C 13,9 C 13,3 C 98 % 1016,1 hPa 0,0 l/m 0 min 0 min 0 W/m 4,5 km/h (1 Bft) 97,87 %
30.08.2018 05:16 14,4 C 13,9 C 13,3 C 98 % 1016,1 hPa 0,0 l/m 0 min 0 min 0 W/m 2,3 km/h (1 Bft) 97,87 %
30.08.2018 05:18 14,4 C 13,9 C 13,3 C 98 % 1016,1 hPa 0,0 l/m 0 min 0 min 0 W/m 2,3 km/h (1 Bft) 97,83 %
30.08.2018 05:20 14,4 C 13,9 C 13,3 C 98 % 1016,0 hPa 0,0 l/m 0 min 0 min 0 W/m 4,5 km/h (1 Bft) 97,87 %
30.08.2018 05:22 14,4 C 13,9 C 13,3 C 98 % 1015,9 hPa 0,0 l/m 0 min 0 min 0 W/m 4,5 km/h (1 Bft) 97,87 %
30.08.2018 05:24 14,4 C 13,9 C 13,3 C 98 % 1016,0 hPa 0,0 l/m 0 min 0 min 0 W/m 2,3 km/h (1 Bft) 100,00 %
30.08.2018 05:26 14,4 C 13,9 C 13,3 C 98 % 1015,8 hPa 0,0 l/m 0 min 0 min 0 W/m 6,8 km/h (2 Bft) 100,00 %
30.08.2018 05:28 14,4 C 13,9 C 13,3 C 98 % 1015,9 hPa 0,0 l/m 0 min 0 min 0 W/m 2,3 km/h (1 Bft) 95,74 %
30.08.2018 05:30 14,4 C 13,3 C 13,3 C 98 % 1015,9 hPa 0,0 l/m 0 min 0 min 0 W/m 2,3 km/h (1 Bft) 100,00 %
30.08.2018 05:32 14,4 C 13,3 C 13,3 C 98 % 1016,1 hPa 0,0 l/m 0 min 0 min 0 W/m 0,0 km/h (0 Bft) 97,87 %
30.08.2018 05:34 14,4 C 13,3 C 13,3 C 98 % 1016,0 hPa 0,0 l/m 0 min 0 min 0 W/m 4,5 km/h (1 Bft) 97,87 %
30.08.2018 05:36 14,3 C 13,3 C 13,3 C 99 % 1016,0 hPa 0,0 l/m 0 min 0 min 0 W/m 4,5 km/h (1 Bft) 97,62 %
30.08.2018 05:41 14,3 C 13,3 C 13,3 C 99 % 1016,1 hPa 0,0 l/m 0 min 0 min 0 W/m 2,3 km/h (1 Bft) 95,65 %
30.08.2018 05:42 14,3 C 13,3 C 13,3 C 99 % 1016,1 hPa 0,0 l/m 0 min 0 min 0 W/m 0,0 km/h (0 Bft) 100,00 %
30.08.2018 05:44 14,3 C 13,3 C 13,3 C 99 % 1016,1 hPa 0,0 l/m 0 min 0 min 0 W/m 0,0 km/h (0 Bft) 95,65 %
30.08.2018 05:46 14,3 C 13,3 C 13,3 C 99 % 1016,1 hPa 0,0 l/m 0 min 0 min 0 W/m 0,0 km/h (0 Bft) 97,87 %
30.08.2018 05:48 14,3 C 13,3 C 13,3 C 99 % 1016,1 hPa 0,0 l/m 0 min 0 min 0 W/m 0,0 km/h (0 Bft) 97,87 %
30.08.2018 05:50 14,3 C 13,3 C 13,3 C 99 % 1016,1 hPa 0,0 l/m 0 min 0 min 0 W/m 0,0 km/h (0 Bft) 98,31 %
30.08.2018 05:52 14,3 C 13,3 C 13,3 C 99 % 1016,2 hPa 0,0 l/m 0 min 0 min 0 W/m 0,0 km/h (0 Bft) 97,14 %
30.08.2018 05:54 14,2 C 13,3 C 13,3 C 99 % 1016,2 hPa 0,0 l/m 0 min 0 min 0 W/m 0,0 km/h (0 Bft) 97,87 %
30.08.2018 05:56 14,2 C 13,3 C 13,3 C 99 % 1016,3 hPa 0,0 l/m 0 min 0 min 0 W/m 0,0 km/h (0 Bft) 97,83 %
30.08.2018 05:58 14,2 C 13,3 C 13,3 C 99 % 1016,3 hPa 0,0 l/m 0 min 0 min 0 W/m 0,0 km/h (0 Bft) 97,87 %
30.08.2018 06:00 14,2 C 13,3 C 13,3 C 99 % 1016,3 hPa 0,0 l/m 0 min 0 min 0 W/m 4,5 km/h (1 Bft) 97,87 %
30.08.2018 06:02 14,2 C 13,3 C 13,3 C 99 % 1016,3 hPa 0,0 l/m 0 min 0 min 0 W/m 0,0 km/h (0 Bft) 95,74 %
30.08.2018 06:04 14,2 C 13,3 C 13,3 C 99 % 1016,4 hPa 0,0 l/m 0 min 0 min 0 W/m 0,0 km/h (0 Bft) 97,87 %
30.08.2018 06:06 14,2 C 13,3 C 13,3 C 99 % 1016,4 hPa 0,0 l/m 0 min 0 min 0 W/m 0,0 km/h (0 Bft) 95,74 %
30.08.2018 06:08 14,2 C 13,3 C 13,3 C 99 % 1016,3 hPa 0,0 l/m 0 min 0 min 0 W/m 0,0 km/h (0 Bft) 95,65 %
30.08.2018 06:10 14,2 C 13,3 C 13,3 C 99 % 1016,4 hPa 0,0 l/m 0 min 0 min 0 W/m 0,0 km/h (0 Bft) 97,87 %
30.08.2018 06:12 14,2 C 13,3 C 13,3 C 99 % 1016,4 hPa 0,0 l/m 0 min 0 min 0 W/m 0,0 km/h (0 Bft) 97,87 %
30.08.2018 06:14 14,2 C 13,3 C 13,3 C 99 % 1016,5 hPa 0,0 l/m 0 min 0 min 0 W/m 0,0 km/h (0 Bft) 95,74 %
30.08.2018 06:16 14,2 C 13,3 C 13,3 C 99 % 1016,4 hPa 0,0 l/m 0 min 0 min 0 W/m 0,0 km/h (0 Bft) 97,87 %
30.08.2018 06:18 14,2 C 13,3 C 13,3 C 99 % 1016,5 hPa 0,0 l/m 0 min 0 min 0 W/m 0,0 km/h (0 Bft) 97,87 %
30.08.2018 06:20 14,2 C 13,3 C 13,3 C 99 % 1016,5 hPa 0,0 l/m 0 min 0 min 0 W/m 0,0 km/h (0 Bft) 97,83 %
30.08.2018 06:22 14,2 C 13,3 C 13,3 C 99 % 1016,5 hPa 0,0 l/m 0 min 0 min 0 W/m 0,0 km/h (0 Bft) 97,87 %
30.08.2018 06:24 14,2 C 13,3 C 13,3 C 99 % 1016,5 hPa 0,0 l/m 0 min 0 min 0 W/m 0,0 km/h (0 Bft) 100,00 %
30.08.2018 06:26 14,2 C 13,3 C 13,3 C 99 % 1016,5 hPa 0,0 l/m 0 min 0 min 0 W/m 0,0 km/h (0 Bft) 100,00 %
30.08.2018 06:28 14,2 C 13,9 C 13,3 C 99 % 1016,5 hPa 0,0 l/m 0 min 0 min 0 W/m 0,0 km/h (0 Bft) 100,00 %
30.08.2018 06:30 14,2 C 13,3 C 13,3 C 99 % 1016,5 hPa 0,0 l/m 0 min 0 min 0 W/m 2,3 km/h (1 Bft) 100,00 %
30.08.2018 06:32 14,2 C 13,3 C 13,3 C 99 % 1016,7 hPa 0,0 l/m 0 min 0 min 0 W/m 2,3 km/h (1 Bft) 97,83 %
30.08.2018 06:34 14,2 C 13,3 C 13,3 C 99 % 1016,5 hPa 0,0 l/m 0 min 0 min 0 W/m 2,3 km/h (1 Bft) 100,00 %
30.08.2018 06:36 14,2 C 13,9 C 13,3 C 99 % 1016,5 hPa 0,0 l/m 0 min 0 min 0 W/m 4,5 km/h (1 Bft) 97,87 %
30.08.2018 06:38 14,2 C 13,9 C 13,3 C 99 % 1016,5 hPa 0,0 l/m 0 min 0 min 0 W/m 0,0 km/h (0 Bft) 97,87 %
30.08.2018 06:40 14,2 C 13,9 C 13,3 C 99 % 1016,5 hPa 0,0 l/m 0 min 0 min 0 W/m 2,3 km/h (1 Bft) 97,87 %
30.08.2018 06:42 14,2 C 13,9 C 13,3 C 99 % 1016,7 hPa 0,0 l/m 0 min 0 min 0 W/m 4,5 km/h (1 Bft) 95,74 %
30.08.2018 06:44 14,2 C 13,9 C 13,3 C 99 % 1016,6 hPa 0,0 l/m 0 min 0 min 0 W/m 4,5 km/h (1 Bft) 93,48 %
30.08.2018 06:46 14,3 C 13,9 C 13,3 C 99 % 1016,5 hPa 0,0 l/m 0 min 0 min 0 W/m 2,3 km/h (1 Bft) 95,74 %
30.08.2018 06:48 14,3 C 13,9 C 13,3 C 99 % 1016,6 hPa 0,0 l/m 0 min 0 min 0 W/m 0,0 km/h (0 Bft) 91,49 %
30.08.2018 06:50 14,3 C 13,9 C 13,3 C 99 % 1016,6 hPa 0,0 l/m 0 min 0 min 0 W/m 0,0 km/h (0 Bft) 95,74 %
30.08.2018 06:52 14,3 C 13,9 C 13,3 C 99 % 1016,6 hPa 0,0 l/m 0 min 0 min 4 W/m 4,5 km/h (1 Bft) 95,74 %
30.08.2018 06:54 14,3 C 13,9 C 13,3 C 99 % 1016,6 hPa 0,0 l/m 0 min 0 min 5 W/m 2,3 km/h (1 Bft) 95,74 %
30.08.2018 06:56 14,3 C 13,9 C 13,3 C 99 % 1016,6 hPa 0,0 l/m 0 min 0 min 5 W/m 0,0 km/h (0 Bft) 95,65 %
30.08.2018 06:58 14,3 C 13,9 C 13,3 C 99 % 1016,7 hPa 0,0 l/m 0 min 0 min 6 W/m 4,5 km/h (1 Bft) 95,74 %
30.08.2018 07:00 14,3 C 13,9 C 13,3 C 99 % 1016,6 hPa 0,0 l/m 0 min 0 min 7 W/m 2,3 km/h (1 Bft) 95,74 %
30.08.2018 07:02 14,3 C 13,9 C 13,3 C 99 % 1016,7 hPa 0,0 l/m 0 min 0 min 7 W/m 4,5 km/h (1 Bft) 91,49 %
30.08.2018 07:04 14,3 C 13,9 C 13,3 C 99 % 1016,7 hPa 0,0 l/m 0 min 0 min 9 W/m 4,5 km/h (1 Bft) 93,62 %
30.08.2018 07:06 14,4 C 13,9 C 13,3 C 99 % 1016,8 hPa 0,0 l/m 0 min 0 min 11 W/m 4,5 km/h (1 Bft) 95,65 %
30.08.2018 07:08 14,4 C 13,9 C 13,3 C 99 % 1016,8 hPa 0,0 l/m 0 min 0 min 11 W/m 0,0 km/h (0 Bft) 96,30 %
30.08.2018 07:10 14,4 C 13,9 C 13,3 C 99 % 1016,8 hPa 0,0 l/m 0 min 0 min 11 W/m 2,3 km/h (1 Bft) 95,74 %
30.08.2018 07:12 14,4 C 13,9 C 13,3 C 99 % 1016,9 hPa 0,0 l/m 0 min 0 min 11 W/m 4,5 km/h (1 Bft) 95,74 %
30.08.2018 07:14 14,4 C 13,9 C 13,3 C 99 % 1016,9 hPa 0,0 l/m 0 min 0 min 12 W/m 2,3 km/h (1 Bft) 95,65 %
30.08.2018 07:16 14,4 C 13,9 C 13,3 C 99 % 1017,0 hPa 0,0 l/m 0 min 0 min 12 W/m 2,3 km/h (1 Bft) 95,74 %
30.08.2018 07:18 14,4 C 13,9 C 13,3 C 99 % 1017,0 hPa 0,0 l/m 0 min 0 min 12 W/m 4,5 km/h (1 Bft) 95,74 %
30.08.2018 07:20 14,4 C 13,9 C 13,3 C 99 % 1017,0 hPa 0,0 l/m 0 min 0 min 15 W/m 4,5 km/h (1 Bft) 93,62 %
30.08.2018 07:22 14,4 C 13,9 C 13,3 C 99 % 1017,0 hPa 0,0 l/m 0 min 0 min 18 W/m 4,5 km/h (1 Bft) 93,62 %
30.08.2018 07:24 14,4 C 13,9 C 13,3 C 99 % 1017,0 hPa 0,0 l/m 0 min 0 min 22 W/m 4,5 km/h (1 Bft) 95,74 %
30.08.2018 07:26 14,4 C 13,9 C 13,9 C 99 % 1017,0 hPa 0,0 l/m 0 min 0 min 21 W/m 2,3 km/h (1 Bft) 95,65 %
30.08.2018 07:28 14,4 C 13,9 C 13,9 C 99 % 1017,0 hPa 0,0 l/m 0 min 0 min 19 W/m 6,8 km/h (2 Bft) 95,74 %
30.08.2018 07:30 14,4 C 13,9 C 13,9 C 99 % 1017,0 hPa 0,0 l/m 0 min 0 min 20 W/m 6,8 km/h (2 Bft) 97,87 %
30.08.2018 07:32 14,4 C 13,9 C 13,9 C 99 % 1017,0 hPa 0,0 l/m 0 min 0 min 26 W/m 2,3 km/h (1 Bft) 97,96 %
30.08.2018 07:34 14,4 C 13,9 C 13,9 C 99 % 1017,1 hPa 0,0 l/m 0 min 0 min 27 W/m 0,0 km/h (0 Bft) 97,87 %
30.08.2018 07:36 14,4 C 13,9 C 13,3 C 99 % 1017,1 hPa 0,0 l/m 0 min 0 min 31 W/m 2,3 km/h (1 Bft) 93,62 %
30.08.2018 07:38 14,5 C 13,9 C 13,9 C 99 % 1017,1 hPa 0,0 l/m 0 min 0 min 34 W/m 2,3 km/h (1 Bft) 100,00 %
30.08.2018 07:40 14,5 C 13,9 C 13,3 C 99 % 1017,2 hPa 0,0 l/m 0 min 0 min 34 W/m 4,5 km/h (1 Bft) 100,00 %
30.08.2018 07:42 14,5 C 13,9 C 13,3 C 99 % 1017,2 hPa 0,0 l/m 0 min 0 min 32 W/m 2,3 km/h (1 Bft) 100,00 %
30.08.2018 07:44 14,5 C 13,9 C 13,3 C 99 % 1017,2 hPa 0,0 l/m 0 min 0 min 36 W/m 2,3 km/h (1 Bft) 97,87 %
30.08.2018 07:46 14,5 C 13,9 C 13,9 C 99 % 1017,2 hPa 0,0 l/m 0 min 0 min 39 W/m 2,3 km/h (1 Bft) 100,00 %
30.08.2018 07:48 14,5 C 13,9 C 13,9 C 99 % 1017,3 hPa 0,0 l/m 0 min 0 min 40 W/m 2,3 km/h (1 Bft) 100,00 %
30.08.2018 07:50 14,5 C 13,9 C 13,9 C 99 % 1017,3 hPa 0,0 l/m 0 min 0 min 35 W/m 0,0 km/h (0 Bft) 100,00 %
30.08.2018 07:52 14,5 C 13,9 C 13,9 C 99 % 1017,3 hPa 0,0 l/m 0 min 0 min 35 W/m 4,5 km/h (1 Bft) 100,00 %
30.08.2018 07:54 14,5 C 13,9 C 13,9 C 99 % 1017,3 hPa 0,0 l/m 0 min 0 min 40 W/m 2,3 km/h (1 Bft) 97,87 %
30.08.2018 07:56 14,5 C 13,9 C 13,9 C 99 % 1017,3 hPa 0,0 l/m 0 min 0 min 48 W/m 2,3 km/h (1 Bft) 100,00 %
30.08.2018 07:58 14,5 C 13,9 C 13,9 C 99 % 1017,2 hPa 0,0 l/m 0 min 0 min 60 W/m 4,5 km/h (1 Bft) 100,00 %
30.08.2018 08:00 14,5 C 13,9 C 13,9 C 99 % 1017,2 hPa 0,0 l/m 0 min 0 min 74 W/m 6,8 km/h (2 Bft) 100,00 %
30.08.2018 08:02 14,5 C 13,9 C 13,9 C 99 % 1017,3 hPa 0,0 l/m 0 min 0 min 77 W/m 4,5 km/h (1 Bft) 100,00 %
30.08.2018 08:04 14,6 C 13,9 C 13,9 C 99 % 1017,4 hPa 0,0 l/m 0 min 0 min 73 W/m 11,3 km/h (2 Bft) 100,00 %
30.08.2018 08:06 14,6 C 13,9 C 13,9 C 99 % 1017,3 hPa 0,0 l/m 0 min 0 min 61 W/m 6,8 km/h (2 Bft) 97,92 %
30.08.2018 08:08 14,6 C 13,9 C 13,9 C 99 % 1017,3 hPa 0,0 l/m 0 min 0 min 51 W/m 4,5 km/h (1 Bft) 97,87 %
30.08.2018 08:10 14,6 C 13,9 C 13,9 C 99 % 1017,3 hPa 0,0 l/m 0 min 0 min 46 W/m 4,5 km/h (1 Bft) 100,00 %
30.08.2018 08:12 14,6 C 13,9 C 13,9 C 99 % 1017,3 hPa 0,0 l/m 0 min 0 min 47 W/m 2,3 km/h (1 Bft) 95,74 %
30.08.2018 08:14 14,6 C 13,9 C 13,9 C 99 % 1017,3 hPa 0,0 l/m 0 min 0 min 54 W/m 4,5 km/h (1 Bft) 100,00 %
30.08.2018 08:16 14,6 C 13,9 C 13,9 C 99 % 1017,3 hPa 0,0 l/m 0 min 0 min 41 W/m 4,5 km/h (1 Bft) 97,87 %
30.08.2018 08:18 14,6 C 13,9 C 13,9 C 99 % 1017,3 hPa 0,0 l/m 0 min 0 min 40 W/m 4,5 km/h (1 Bft) 100,00 %
30.08.2018 08:20 14,6 C 13,9 C 13,9 C 99 % 1017,3 hPa 0,0 l/m 0 min 0 min 45 W/m 9,0 km/h (2 Bft) 97,87 %
30.08.2018 08:22 14,6 C 13,9 C 13,9 C 99 % 1017,4 hPa 0,0 l/m 0 min 0 min 49 W/m 13,5 km/h (3 Bft) 97,87 %
30.08.2018 08:24 14,6 C 13,9 C 13,9 C 99 % 1017,4 hPa 0,0 l/m 0 min 0 min 58 W/m 11,3 km/h (2 Bft) 95,74 %
30.08.2018 08:26 14,6 C 13,9 C 13,9 C 99 % 1017,4 hPa 0,0 l/m 0 min 0 min 64 W/m 6,8 km/h (2 Bft) 97,83 %
30.08.2018 08:28 14,6 C 13,9 C 13,9 C 99 % 1017,4 hPa 0,0 l/m 0 min 0 min 80 W/m 11,3 km/h (2 Bft) 97,87 %
30.08.2018 08:30 14,5 C 13,9 C 13,9 C 99 % 1017,4 hPa 0,0 l/m 0 min 0 min 91 W/m 9,0 km/h (2 Bft) 97,87 %
30.08.2018 08:32 14,5 C 13,9 C 13,9 C 99 % 1017,5 hPa 0,0 l/m 0 min 0 min 102 W/m 9,0 km/h (2 Bft) 97,87 %
30.08.2018 08:34 14,5 C 13,9 C 13,9 C 99 % 1017,5 hPa 0,0 l/m 0 min 0 min 108 W/m 11,3 km/h (2 Bft) 97,87 %
30.08.2018 08:36 14,6 C 14,4 C 13,9 C 99 % 1017,5 hPa 0,0 l/m 0 min 0 min 129 W/m 9,0 km/h (2 Bft) 97,83 %
30.08.2018 08:38 14,6 C 14,4 C 13,9 C 99 % 1017,5 hPa 0,0 l/m 0 min 0 min 125 W/m 6,8 km/h (2 Bft) 97,87 %
30.08.2018 08:40 14,6 C 14,4 C 14,4 C 99 % 1017,6 hPa 0,0 l/m 0 min 0 min 115 W/m 4,5 km/h (1 Bft) 97,87 %
30.08.2018 08:42 14,6 C 14,4 C 14,4 C 99 % 1017,6 hPa 0,0 l/m 0 min 0 min 121 W/m 6,8 km/h (2 Bft) 97,87 %
30.08.2018 08:44 14,7 C 14,4 C 14,4 C 99 % 1017,6 hPa 0,0 l/m 0 min 0 min 94 W/m 9,0 km/h (2 Bft) 95,74 %
30.08.2018 08:46 14,7 C 14,4 C 14,4 C 99 % 1017,6 hPa 0,0 l/m 0 min 0 min 111 W/m 6,8 km/h (2 Bft) 95,74 %
30.08.2018 08:48 14,7 C 14,4 C 14,4 C 99 % 1017,6 hPa 0,0 l/m 0 min 0 min 116 W/m 9,0 km/h (2 Bft) 97,83 %
30.08.2018 08:50 14,7 C 14,4 C 14,4 C 99 % 1017,6 hPa 0,0 l/m 0 min 0 min 142 W/m 9,0 km/h (2 Bft) 97,87 %
30.08.2018 08:52 14,7 C 14,4 C 14,4 C 99 % 1017,7 hPa 0,0 l/m 0 min 0 min 155 W/m 11,3 km/h (2 Bft) 97,87 %
30.08.2018 08:54 14,7 C 14,4 C 14,4 C 99 % 1017,7 hPa 0,0 l/m 0 min 0 min 138 W/m 13,5 km/h (3 Bft) 97,87 %
30.08.2018 08:56 14,7 C 14,4 C 14,4 C 99 % 1017,8 hPa 0,0 l/m 0 min 0 min 117 W/m 11,3 km/h (2 Bft) 97,87 %
30.08.2018 08:58 14,7 C 14,4 C 14,4 C 99 % 1017,8 hPa 0,0 l/m 0 min 0 min 108 W/m 11,3 km/h (2 Bft) 97,87 %
30.08.2018 09:00 14,7 C 14,4 C 14,4 C 99 % 1017,8 hPa 0,0 l/m 0 min 0 min 101 W/m 11,3 km/h (2 Bft) 93,62 %
30.08.2018 09:02 14,7 C 14,4 C 14,4 C 99 % 1017,8 hPa 0,0 l/m 0 min 0 min 102 W/m 9,0 km/h (2 Bft) 97,83 %
30.08.2018 09:04 14,7 C 14,4 C 14,4 C 99 % 1017,8 hPa 0,0 l/m 0 min 0 min 124 W/m 6,8 km/h (2 Bft) 97,87 %
30.08.2018 09:06 14,7 C 14,4 C 14,4 C 99 % 1017,7 hPa 0,0 l/m 0 min 0 min 141 W/m 13,5 km/h (3 Bft) 97,14 %
30.08.2018 09:08 14,7 C 14,4 C 14,4 C 99 % 1017,8 hPa 0,0 l/m 0 min 0 min 129 W/m 2,3 km/h (1 Bft) 97,87 %
30.08.2018 09:10 14,7 C 14,4 C 14,4 C 99 % 1017,9 hPa 0,0 l/m 0 min 0 min 122 W/m 9,0 km/h (2 Bft) 97,87 %
30.08.2018 09:12 14,7 C 14,4 C 14,4 C 99 % 1017,8 hPa 0,0 l/m 0 min 0 min 130 W/m 9,0 km/h (2 Bft) 97,87 %
30.08.2018 09:14 14,7 C 14,4 C 14,4 C 99 % 1017,8 hPa 0,0 l/m 0 min 0 min 127 W/m 11,3 km/h (2 Bft) 95,74 %
30.08.2018 09:16 14,7 C 14,4 C 14,4 C 99 % 1017,9 hPa 0,0 l/m 0 min 0 min 126 W/m 9,0 km/h (2 Bft) 100,00 %
30.08.2018 09:18 14,7 C 14,4 C 14,4 C 99 % 1017,9 hPa 0,0 l/m 0 min 0 min 125 W/m 9,0 km/h (2 Bft) 100,00 %
30.08.2018 09:20 14,7 C 14,4 C 14,4 C 99 % 1017,9 hPa 0,0 l/m 0 min 0 min 114 W/m 9,0 km/h (2 Bft) 95,74 %
30.08.2018 09:22 14,7 C 14,4 C 14,4 C 99 % 1017,9 hPa 0,0 l/m 0 min 0 min 110 W/m 6,8 km/h (2 Bft) 97,87 %
30.08.2018 09:24 14,7 C 14,4 C 14,4 C 99 % 1017,9 hPa 0,0 l/m 0 min 0 min 135 W/m 6,8 km/h (2 Bft) 95,74 %
30.08.2018 09:26 14,7 C 14,4 C 14,4 C 99 % 1017,9 hPa 0,0 l/m 2 min 0 min 252 W/m 9,0 km/h (2 Bft) 97,83 %
30.08.2018 09:28 14,7 C 15,0 C 14,4 C 99 % 1018,0 hPa 0,0 l/m 2 min 0 min 262 W/m 6,8 km/h (2 Bft) 95,74 %
30.08.2018 09:30 14,7 C 16,1 C 14,4 C 99 % 1018,0 hPa 0,0 l/m 2 min 0 min 284 W/m 6,8 km/h (2 Bft) 97,87 %
30.08.2018 09:32 14,7 C 16,7 C 14,4 C 99 % 1018,0 hPa 0,0 l/m 2 min 0 min 287 W/m 6,8 km/h (2 Bft) 95,74 %
30.08.2018 09:34 14,7 C 16,7 C 14,4 C 99 % 1018,1 hPa 0,0 l/m 2 min 0 min 290 W/m 6,8 km/h (2 Bft) 97,87 %
30.08.2018 09:36 14,7 C 17,8 C 14,4 C 99 % 1018,1 hPa 0,0 l/m 2 min 0 min 295 W/m 6,8 km/h (2 Bft) 97,87 %
30.08.2018 09:38 14,8 C 18,3 C 14,4 C 99 % 1018,1 hPa 0,0 l/m 2 min 0 min 305 W/m 9,0 km/h (2 Bft) 97,83 %
30.08.2018 09:40 14,8 C 18,9 C 14,4 C 99 % 1018,2 hPa 0,0 l/m 2 min 0 min 313 W/m 9,0 km/h (2 Bft) 95,74 %
30.08.2018 09:42 14,8 C 18,9 C 14,4 C 98 % 1018,2 hPa 0,0 l/m 2 min 0 min 326 W/m 11,3 km/h (2 Bft) 97,87 %
30.08.2018 09:44 14,9 C 18,9 C 14,4 C 98 % 1018,2 hPa 0,0 l/m 2 min 0 min 339 W/m 13,5 km/h (3 Bft) 97,87 %
30.08.2018 09:46 14,9 C 18,9 C 15,0 C 98 % 1018,2 hPa 0,0 l/m 2 min 0 min 339 W/m 13,5 km/h (3 Bft) 97,87 %
30.08.2018 09:48 14,9 C 19,4 C 15,0 C 99 % 1018,2 hPa 0,0 l/m 2 min 0 min 339 W/m 13,5 km/h (3 Bft) 97,87 %
30.08.2018 09:50 14,9 C 19,4 C 15,0 C 99 % 1018,3 hPa 0,0 l/m 2 min 0 min 409 W/m 11,3 km/h (2 Bft) 97,83 %
30.08.2018 09:52 15,0 C 19,4 C 15,0 C 99 % 1018,3 hPa 0,0 l/m 2 min 0 min 445 W/m 4,5 km/h (1 Bft) 97,87 %
30.08.2018 09:54 15,1 C 18,3 C 15,0 C 99 % 1018,3 hPa 0,0 l/m 2 min 0 min 368 W/m 11,3 km/h (2 Bft) 97,87 %
30.08.2018 09:56 15,1 C 17,2 C 15,0 C 99 % 1018,4 hPa 0,0 l/m 0 min 0 min 167 W/m 11,3 km/h (2 Bft) 97,87 %
30.08.2018 09:58 15,1 C 17,2 C 15,0 C 98 % 1018,4 hPa 0,0 l/m 0 min 0 min 214 W/m 9,0 km/h (2 Bft) 95,74 %
30.08.2018 10:00 15,2 C 17,2 C 15,0 C 98 % 1018,4 hPa 0,0 l/m 0 min 0 min 203 W/m 11,3 km/h (2 Bft) 95,74 %
30.08.2018 10:02 15,2 C 17,8 C 15,0 C 98 % 1018,4 hPa 0,0 l/m 2 min 0 min 350 W/m 11,3 km/h (2 Bft) 98,11 %
30.08.2018 10:04 15,3 C 17,8 C 15,0 C 98 % 1018,4 hPa 0,0 l/m 2 min 0 min 317 W/m 9,0 km/h (2 Bft) 97,87 %
30.08.2018 10:06 15,3 C 17,8 C 15,0 C 98 % 1018,4 hPa 0,0 l/m 2 min 0 min 315 W/m 9,0 km/h (2 Bft) 97,87 %
30.08.2018 10:08 15,4 C 17,2 C 15,0 C 98 % 1018,4 hPa 0,0 l/m 0 min 0 min 190 W/m 15,8 km/h (3 Bft) 97,87 %
30.08.2018 10:10 15,4 C 17,2 C 15,0 C 98 % 1018,4 hPa 0,0 l/m 0 min 0 min 188 W/m 9,0 km/h (2 Bft) 95,65 %
30.08.2018 10:12 15,4 C 18,3 C 15,0 C 98 % 1018,4 hPa 0,0 l/m 0 min 0 min 225 W/m 9,0 km/h (2 Bft) 95,74 %
30.08.2018 10:14 15,4 C 18,9 C 15,0 C 98 % 1018,4 hPa 0,0 l/m 0 min 0 min 233 W/m 13,5 km/h (3 Bft) 97,87 %
30.08.2018 10:16 15,4 C 20,0 C 15,0 C 98 % 1018,5 hPa 0,0 l/m 2 min 0 min 408 W/m 6,8 km/h (2 Bft) 95,74 %
30.08.2018 10:18 15,5 C 21,1 C 15,0 C 98 % 1018,5 hPa 0,0 l/m 2 min 0 min 422 W/m 6,8 km/h (2 Bft) 97,87 %
30.08.2018 10:20 15,6 C 21,1 C 15,0 C 98 % 1018,5 hPa 0,0 l/m 2 min 0 min 454 W/m 13,5 km/h (3 Bft) 97,87 %
30.08.2018 10:22 15,6 C 21,7 C 15,6 C 98 % 1018,5 hPa 0,0 l/m 2 min 0 min 493 W/m 11,3 km/h (2 Bft) 97,83 %
30.08.2018 10:24 15,6 C 22,2 C 15,6 C 98 % 1018,5 hPa 0,0 l/m 2 min 0 min 526 W/m 11,3 km/h (2 Bft) 95,74 %
30.08.2018 10:26 15,7 C 20,6 C 15,6 C 98 % 1018,5 hPa 0,0 l/m 2 min 0 min 391 W/m 18,0 km/h (3 Bft) 97,87 %
30.08.2018 10:28 15,7 C 19,4 C 15,6 C 97 % 1018,5 hPa 0,0 l/m 0 min 0 min 245 W/m 9,0 km/h (2 Bft) 97,87 %
30.08.2018 10:30 15,7 C 18,9 C 15,6 C 97 % 1018,5 hPa 0,0 l/m 0 min 0 min 246 W/m 11,3 km/h (2 Bft) 97,87 %
30.08.2018 10:32 15,8 C 18,3 C 15,6 C 97 % 1018,6 hPa 0,0 l/m 0 min 0 min 181 W/m 15,8 km/h (3 Bft) 97,83 %
30.08.2018 10:34 15,8 C 17,8 C 15,6 C 97 % 1018,6 hPa 0,0 l/m 0 min 0 min 213 W/m 11,3 km/h (2 Bft) 97,87 %
30.08.2018 10:36 15,8 C 17,8 C 15,6 C 96 % 1018,7 hPa 0,0 l/m 0 min 0 min 253 W/m 11,3 km/h (2 Bft) 95,74 %
30.08.2018 10:38 15,8 C 18,3 C 15,6 C 96 % 1018,7 hPa 0,0 l/m 2 min 0 min 346 W/m 15,8 km/h (3 Bft) 97,87 %
30.08.2018 10:40 15,9 C 17,8 C 15,6 C 95 % 1018,6 hPa 0,0 l/m 2 min 0 min 279 W/m 11,3 km/h (2 Bft) 97,87 %
30.08.2018 10:42 15,9 C 17,8 C 15,6 C 95 % 1018,7 hPa 0,0 l/m 0 min 0 min 205 W/m 13,5 km/h (3 Bft) 97,87 %
30.08.2018 10:44 15,9 C 17,8 C 15,6 C 95 % 1018,7 hPa 0,0 l/m 0 min 0 min 199 W/m 11,3 km/h (2 Bft) 97,83 %
30.08.2018 10:46 16,0 C 20,0 C 15,6 C 94 % 1018,7 hPa 0,0 l/m 0 min 0 min 195 W/m 11,3 km/h (2 Bft) 100,00 %
30.08.2018 10:48 16,1 C 21,1 C 15,6 C 94 % 1018,7 hPa 0,0 l/m 2 min 0 min 514 W/m 9,0 km/h (2 Bft) 100,00 %
30.08.2018 10:50 16,2 C 21,7 C 15,6 C 93 % 1018,7 hPa 0,0 l/m 2 min 0 min 570 W/m 18,0 km/h (3 Bft) 97,87 %
30.08.2018 10:52 16,3 C 20,0 C 15,6 C 93 % 1018,8 hPa 0,0 l/m 2 min 0 min 335 W/m 11,3 km/h (2 Bft) 100,00 %
30.08.2018 10:54 16,3 C 18,9 C 15,6 C 92 % 1018,8 hPa 0,0 l/m 0 min 0 min 236 W/m 11,3 km/h (2 Bft) 97,87 %
30.08.2018 10:56 16,4 C 20,0 C 15,6 C 91 % 1018,8 hPa 0,0 l/m 0 min 0 min 230 W/m 9,0 km/h (2 Bft) 100,00 %
30.08.2018 10:58 16,5 C 22,2 C 15,6 C 91 % 1018,9 hPa 0,0 l/m 2 min 0 min 465 W/m 9,0 km/h (2 Bft) 100,00 %
30.08.2018 11:00 16,7 C 23,9 C 16,1 C 90 % 1018,9 hPa 0,0 l/m 2 min 0 min 590 W/m 13,5 km/h (3 Bft) 97,87 %
30.08.2018 11:02 16,8 C 21,7 C 16,1 C 90 % 1018,9 hPa 0,0 l/m 2 min 0 min 376 W/m 11,3 km/h (2 Bft) 100,00 %
30.08.2018 11:04 16,9 C 20,6 C 16,1 C 89 % 1018,8 hPa 0,0 l/m 0 min 0 min 192 W/m 6,8 km/h (2 Bft) 100,00 %
30.08.2018 11:06 16,9 C 18,9 C 15,6 C 89 % 1018,8 hPa 0,0 l/m 0 min 0 min 154 W/m 6,8 km/h (2 Bft) 100,00 %
30.08.2018 11:08 16,9 C 21,1 C 15,6 C 88 % 1018,8 hPa 0,0 l/m 0 min 0 min 223 W/m 9,0 km/h (2 Bft) 97,87 %
30.08.2018 11:10 17,1 C 22,8 C 15,6 C 87 % 1018,9 hPa 0,0 l/m 2 min 0 min 580 W/m 11,3 km/h (2 Bft) 100,00 %
30.08.2018 11:12 17,2 C 23,9 C 16,1 C 87 % 1018,9 hPa 0,0 l/m 2 min 0 min 633 W/m 9,0 km/h (2 Bft) 100,00 %
30.08.2018 11:14 17,4 C 25,6 C 16,1 C 87 % 1018,8 hPa 0,0 l/m 2 min 0 min 666 W/m 13,5 km/h (3 Bft) 100,00 %
30.08.2018 11:16 17,6 C 23,9 C 16,7 C 86 % 1018,8 hPa 0,0 l/m 2 min 0 min 622 W/m 13,5 km/h (3 Bft) 100,00 %
30.08.2018 11:18 17,7 C 21,7 C 16,1 C 86 % 1018,8 hPa 0,0 l/m 0 min 0 min 219 W/m 11,3 km/h (2 Bft) 97,87 %
30.08.2018 11:20 17,7 C 20,0 C 16,1 C 85 % 1018,8 hPa 0,0 l/m 0 min 0 min 173 W/m 11,3 km/h (2 Bft) 100,00 %
30.08.2018 11:22 17,7 C 18,9 C 16,1 C 84 % 1018,8 hPa 0,0 l/m 0 min 0 min 162 W/m 6,8 km/h (2 Bft) 100,00 %
30.08.2018 11:24 17,7 C 20,0 C 16,1 C 83 % 1018,8 hPa 0,0 l/m 0 min 0 min 151 W/m 11,3 km/h (2 Bft) 100,00 %
30.08.2018 11:26 17,7 C 22,2 C 16,1 C 83 % 1018,8 hPa 0,0 l/m 2 min 0 min 422 W/m 6,8 km/h (2 Bft) 100,00 %
30.08.2018 11:28 17,8 C 23,9 C 16,1 C 84 % 1018,8 hPa 0,0 l/m 2 min 0 min 626 W/m 6,8 km/h (2 Bft) 97,87 %
30.08.2018 11:30 17,9 C 24,4 C 16,7 C 84 % 1018,7 hPa 0,0 l/m 2 min 0 min 633 W/m 15,8 km/h (3 Bft) 97,83 %
30.08.2018 11:32 18,1 C 25,0 C 16,7 C 82 % 1018,8 hPa 0,0 l/m 2 min 0 min 647 W/m 13,5 km/h (3 Bft) 100,00 %
30.08.2018 11:34 18,2 C 22,8 C 16,7 C 81 % 1018,9 hPa 0,0 l/m 2 min 0 min 486 W/m 15,8 km/h (3 Bft) 100,00 %
30.08.2018 11:36 18,2 C 21,1 C 16,1 C 80 % 1018,8 hPa 0,0 l/m 0 min 0 min 162 W/m 9,0 km/h (2 Bft) 95,74 %
30.08.2018 11:38 18,2 C 22,8 C 16,1 C 80 % 1018,8 hPa 0,0 l/m 0 min 0 min 258 W/m 6,8 km/h (2 Bft) 95,74 %
30.08.2018 11:40 18,3 C 23,9 C 16,7 C 80 % 1018,7 hPa 0,0 l/m 2 min 0 min 627 W/m 9,0 km/h (2 Bft) 97,87 %
30.08.2018 11:42 18,4 C 25,6 C 16,7 C 79 % 1018,8 hPa 0,0 l/m 2 min 0 min 638 W/m 6,8 km/h (2 Bft) 97,87 %
30.08.2018 11:44 18,6 C 26,1 C 16,7 C 79 % 1018,8 hPa 0,0 l/m 2 min 0 min 634 W/m 9,0 km/h (2 Bft) 95,65 %
30.08.2018 11:46 18,7 C 25,6 C 16,7 C 78 % 1018,8 hPa 0,0 l/m 2 min 0 min 668 W/m 6,8 km/h (2 Bft) 95,74 %
30.08.2018 11:48 18,8 C 25,0 C 17,2 C 78 % 1018,7 hPa 0,0 l/m 2 min 0 min 691 W/m 9,0 km/h (2 Bft) 97,87 %
30.08.2018 11:50 18,9 C 25,0 C 17,2 C 77 % 1018,8 hPa 0,0 l/m 2 min 0 min 713 W/m 11,3 km/h (2 Bft) 95,74 %
30.08.2018 11:52 19,1 C 24,4 C 17,2 C 76 % 1018,8 hPa 0,0 l/m 2 min 0 min 712 W/m 13,5 km/h (3 Bft) 97,87 %
30.08.2018 11:54 19,1 C 23,3 C 17,2 C 75 % 1018,8 hPa 0,0 l/m 2 min 0 min 643 W/m 6,8 km/h (2 Bft) 95,74 %
30.08.2018 11:56 19,2 C 24,4 C 17,2 C 75 % 1018,8 hPa 0,0 l/m 2 min 0 min 496 W/m 4,5 km/h (1 Bft) 95,65 %
30.08.2018 11:58 19,3 C 23,9 C 17,2 C 74 % 1018,8 hPa 0,0 l/m 2 min 0 min 493 W/m 11,3 km/h (2 Bft) 95,74 %
30.08.2018 12:00 19,4 C 22,8 C 17,2 C 73 % 1018,9 hPa 0,0 l/m 0 min 0 min 308 W/m 13,5 km/h (3 Bft) 95,74 %
30.08.2018 12:02 19,4 C 20,6 C 16,7 C 72 % 1018,9 hPa 0,0 l/m 0 min 0 min 181 W/m 13,5 km/h (3 Bft) 95,74 %
30.08.2018 12:04 19,3 C 19,4 C 16,7 C 72 % 1018,8 hPa 0,0 l/m 0 min 0 min 159 W/m 11,3 km/h (2 Bft) 95,74 %
30.08.2018 12:06 19,2 C 18,9 C 16,7 C 72 % 1018,8 hPa 0,0 l/m 0 min 0 min 183 W/m 15,8 km/h (3 Bft) 95,74 %
30.08.2018 12:08 19,1 C 18,3 C 16,7 C 71 % 1018,9 hPa 0,0 l/m 0 min 0 min 200 W/m 4,5 km/h (1 Bft) 95,65 %
30.08.2018 12:10 19,1 C 20,0 C 16,7 C 72 % 1019,0 hPa 0,0 l/m 0 min 0 min 237 W/m 9,0 km/h (2 Bft) 95,74 %
30.08.2018 12:12 19,1 C 22,2 C 16,7 C 72 % 1018,9 hPa 0,0 l/m 2 min 0 min 565 W/m 11,3 km/h (2 Bft) 93,62 %
30.08.2018 12:14 19,1 C 23,3 C 16,7 C 72 % 1018,9 hPa 0,0 l/m 2 min 0 min 356 W/m 13,5 km/h (3 Bft) 95,74 %
30.08.2018 12:16 19,0 C 21,1 C 16,7 C 70 % 1018,9 hPa 0,0 l/m 0 min 0 min 200 W/m 9,0 km/h (2 Bft) 95,74 %
30.08.2018 12:18 19,0 C 21,1 C 16,7 C 70 % 1018,9 hPa 0,0 l/m 0 min 0 min 179 W/m 15,8 km/h (3 Bft) 95,74 %
30.08.2018 12:20 18,9 C 22,2 C 16,7 C 70 % 1018,9 hPa 0,0 l/m 0 min 0 min 181 W/m 9,0 km/h (2 Bft) 97,83 %
30.08.2018 12:22 19,0 C 23,9 C 17,2 C 69 % 1018,8 hPa 0,0 l/m 2 min 0 min 361 W/m 9,0 km/h (2 Bft) 95,74 %
30.08.2018 12:24 19,1 C 23,9 C 17,2 C 69 % 1019,0 hPa 0,0 l/m 2 min 0 min 557 W/m 9,0 km/h (2 Bft) 97,87 %
30.08.2018 12:26 19,2 C 25,6 C 17,2 C 70 % 1018,9 hPa 0,0 l/m 0 min 0 min 318 W/m 9,0 km/h (2 Bft) 97,87 %
30.08.2018 12:28 19,3 C 26,1 C 17,8 C 70 % 1018,9 hPa 0,0 l/m 0 min 0 min 249 W/m 15,8 km/h (3 Bft) 97,87 %
30.08.2018 12:30 19,4 C 25,6 C 17,8 C 69 % 1018,9 hPa 0,0 l/m 0 min 0 min 248 W/m 9,0 km/h (2 Bft) 93,62 %
30.08.2018 12:32 19,6 C 25,6 C 17,8 C 69 % 1019,0 hPa 0,0 l/m 0 min 0 min 254 W/m 13,5 km/h (3 Bft) 95,65 %
30.08.2018 12:34 19,7 C 25,6 C 17,8 C 68 % 1019,0 hPa 0,0 l/m 0 min 0 min 241 W/m 11,3 km/h (2 Bft) 95,74 %
30.08.2018 12:36 19,8 C 25,0 C 17,8 C 68 % 1018,9 hPa 0,0 l/m 0 min 0 min 244 W/m 11,3 km/h (2 Bft) 97,14 %
30.08.2018 12:38 19,8 C 24,4 C 17,2 C 68 % 1018,9 hPa 0,0 l/m 0 min 0 min 235 W/m 11,3 km/h (2 Bft) 97,87 %
30.08.2018 12:40 19,8 C 25,0 C 17,2 C 67 % 1018,9 hPa 0,0 l/m 0 min 0 min 250 W/m 11,3 km/h (2 Bft) 95,74 %
30.08.2018 12:42 19,9 C 24,4 C 17,2 C 66 % 1018,9 hPa 0,0 l/m 0 min 0 min 257 W/m 11,3 km/h (2 Bft) 97,87 %
30.08.2018 12:44 19,9 C 25,6 C 17,2 C 65 % 1019,0 hPa 0,0 l/m 0 min 0 min 315 W/m 11,3 km/h (2 Bft) 95,74 %
30.08.2018 12:46 20,0 C 26,1 C 17,8 C 65 % 1018,9 hPa 0,0 l/m 0 min 0 min 264 W/m 13,5 km/h (3 Bft) 95,65 %
30.08.2018 12:48 20,1 C 23,9 C 17,8 C 66 % 1018,9 hPa 0,0 l/m 0 min 0 min 252 W/m 18,0 km/h (3 Bft) 95,74 %
30.08.2018 12:50 20,1 C 23,3 C 17,8 C 66 % 1018,9 hPa 0,0 l/m 0 min 0 min 206 W/m 11,3 km/h (2 Bft) 95,74 %
30.08.2018 12:52 20,1 C 25,0 C 17,8 C 66 % 1019,0 hPa 0,0 l/m 2 min 0 min 433 W/m 9,0 km/h (2 Bft) 95,74 %
30.08.2018 12:54 20,2 C 25,6 C 17,8 C 67 % 1019,0 hPa 0,0 l/m 2 min 0 min 499 W/m 11,3 km/h (2 Bft) 95,74 %
30.08.2018 12:56 20,2 C 24,4 C 17,8 C 68 % 1018,9 hPa 0,0 l/m 2 min 0 min 555 W/m 15,8 km/h (3 Bft) 95,74 %
30.08.2018 12:58 20,3 C 23,3 C 17,8 C 67 % 1019,0 hPa 0,0 l/m 2 min 0 min 549 W/m 6,8 km/h (2 Bft) 95,65 %
30.08.2018 13:00 20,3 C 22,2 C 17,8 C 67 % 1019,0 hPa 0,0 l/m 2 min 0 min 405 W/m 11,3 km/h (2 Bft) 95,74 %
30.08.2018 13:02 20,3 C 21,1 C 17,8 C 66 % 1019,0 hPa 0,0 l/m 0 min 0 min 229 W/m 9,0 km/h (2 Bft) 94,44 %
30.08.2018 13:04 20,3 C 21,7 C 17,8 C 66 % 1019,0 hPa 0,0 l/m 2 min 0 min 360 W/m 11,3 km/h (2 Bft) 95,74 %
30.08.2018 13:06 20,3 C 21,7 C 17,8 C 67 % 1019,0 hPa 0,0 l/m 2 min 0 min 592 W/m 11,3 km/h (2 Bft) 93,48 %
30.08.2018 13:08 20,3 C 22,2 C 17,8 C 67 % 1019,0 hPa 0,0 l/m 2 min 0 min 385 W/m 9,0 km/h (2 Bft) 95,74 %
30.08.2018 13:10 20,3 C 21,1 C 17,8 C 66 % 1018,9 hPa 0,0 l/m 0 min 0 min 280 W/m 15,8 km/h (3 Bft) 95,74 %
30.08.2018 13:12 20,3 C 21,1 C 17,8 C 65 % 1019,0 hPa 0,0 l/m 0 min 0 min 268 W/m 15,8 km/h (3 Bft) 97,87 %
30.08.2018 13:14 20,3 C 20,6 C 17,8 C 65 % 1019,0 hPa 0,0 l/m 0 min 0 min 219 W/m 11,3 km/h (2 Bft) 97,87 %
30.08.2018 13:16 20,2 C 19,4 C 17,2 C 64 % 1019,0 hPa 0,0 l/m 0 min 0 min 197 W/m 22,5 km/h (4 Bft) 95,65 %
30.08.2018 13:18 20,0 C 18,9 C 16,7 C 63 % 1019,0 hPa 0,0 l/m 0 min 0 min 203 W/m 20,3 km/h (4 Bft) 97,87 %
30.08.2018 13:20 19,8 C 18,9 C 16,7 C 64 % 1019,1 hPa 0,0 l/m 0 min 0 min 227 W/m 13,5 km/h (3 Bft) 97,87 %
30.08.2018 13:22 19,7 C 18,9 C 16,7 C 65 % 1019,0 hPa 0,0 l/m 0 min 0 min 264 W/m 20,3 km/h (4 Bft) 98,00 %
30.08.2018 13:24 19,6 C 18,9 C 16,7 C 66 % 1019,0 hPa 0,0 l/m 0 min 0 min 275 W/m 11,3 km/h (2 Bft) 97,87 %
30.08.2018 13:26 19,4 C 19,4 C 16,7 C 66 % 1019,0 hPa 0,0 l/m 2 min 0 min 407 W/m 15,8 km/h (3 Bft) 97,87 %
30.08.2018 13:28 19,4 C 20,0 C 17,2 C 66 % 1019,0 hPa 0,0 l/m 2 min 0 min 621 W/m 15,8 km/h (3 Bft) 97,83 %
30.08.2018 13:30 19,3 C 20,6 C 17,2 C 67 % 1019,0 hPa 0,0 l/m 2 min 0 min 795 W/m 11,3 km/h (2 Bft) 97,87 %
30.08.2018 13:32 19,3 C 20,6 C 17,8 C 66 % 1018,9 hPa 0,0 l/m 2 min 0 min 787 W/m 13,5 km/h (3 Bft) 97,87 %
30.08.2018 13:34 19,4 C 20,6 C 17,8 C 67 % 1018,9 hPa 0,0 l/m 2 min 0 min 780 W/m 13,5 km/h (3 Bft) 97,87 %
30.08.2018 13:36 19,4 C 20,6 C 17,8 C 67 % 1019,0 hPa 0,0 l/m 2 min 0 min 780 W/m 11,3 km/h (2 Bft) 97,87 %
30.08.2018 13:38 19,4 C 20,6 C 17,8 C 65 % 1019,0 hPa 0,0 l/m 2 min 0 min 752 W/m 13,5 km/h (3 Bft) 100,00 %
30.08.2018 13:40 19,4 C 20,0 C 17,8 C 63 % 1019,0 hPa 0,0 l/m 2 min 0 min 450 W/m 9,0 km/h (2 Bft) 100,00 %
30.08.2018 13:42 19,5 C 20,0 C 17,8 C 63 % 1018,9 hPa 0,0 l/m 2 min 0 min 410 W/m 6,8 km/h (2 Bft) 100,00 %
30.08.2018 13:44 19,5 C 20,6 C 18,3 C 65 % 1018,9 hPa 0,0 l/m 2 min 0 min 838 W/m 9,0 km/h (2 Bft) 100,00 %
30.08.2018 13:46 19,6 C 20,6 C 18,3 C 67 % 1018,9 hPa 0,0 l/m 2 min 0 min 833 W/m 15,8 km/h (3 Bft) 97,87 %
30.08.2018 13:48 19,6 C 20,6 C 18,3 C 63 % 1019,1 hPa 0,0 l/m 2 min 0 min 821 W/m 24,8 km/h (4 Bft) 97,87 %
30.08.2018 13:50 19,6 C 20,0 C 17,8 C 62 % 1019,0 hPa 0,0 l/m 2 min 0 min 779 W/m 20,3 km/h (4 Bft) 100,00 %
30.08.2018 13:52 19,6 C 19,4 C 17,8 C 63 % 1019,0 hPa 0,0 l/m 0 min 0 min 187 W/m 22,5 km/h (4 Bft) 100,00 %
30.08.2018 13:54 19,5 C 18,9 C 17,2 C 63 % 1019,1 hPa 0,0 l/m 0 min 0 min 161 W/m 18,0 km/h (3 Bft) 97,87 %
30.08.2018 13:56 19,4 C 18,9 C 17,2 C 63 % 1019,1 hPa 0,0 l/m 0 min 0 min 169 W/m 18,0 km/h (3 Bft) 100,00 %
30.08.2018 13:58 19,3 C 18,9 C 17,2 C 64 % 1019,1 hPa 0,0 l/m 2 min 0 min 704 W/m 15,8 km/h (3 Bft) 97,87 %
30.08.2018 14:00 19,3 C 19,4 C 17,2 C 64 % 1019,1 hPa 0,0 l/m 2 min 0 min 709 W/m 13,5 km/h (3 Bft) 100,00 %
30.08.2018 14:02 19,3 C 19,4 C 17,8 C 64 % 1019,1 hPa 0,0 l/m 2 min 0 min 723 W/m 13,5 km/h (3 Bft) 100,00 %
30.08.2018 14:04 19,3 C 20,0 C 17,8 C 64 % 1019,1 hPa 0,0 l/m 2 min 0 min 725 W/m 15,8 km/h (3 Bft) 100,00 %
30.08.2018 14:06 19,3 C 20,0 C 17,8 C 64 % 1019,1 hPa 0,0 l/m 2 min 0 min 722 W/m 24,8 km/h (4 Bft) 100,00 %
30.08.2018 14:08 19,4 C 20,0 C 17,8 C 63 % 1019,2 hPa 0,0 l/m 2 min 0 min 724 W/m 22,5 km/h (4 Bft) 100,00 %
30.08.2018 14:10 19,4 C 20,0 C 17,8 C 64 % 1019,1 hPa 0,0 l/m 2 min 0 min 699 W/m 11,3 km/h (2 Bft) 100,00 %
30.08.2018 14:12 19,4 C 20,6 C 17,8 C 63 % 1019,1 hPa 0,0 l/m 2 min 0 min 690 W/m 9,0 km/h (2 Bft) 100,00 %
30.08.2018 14:14 19,4 C 20,6 C 18,3 C 64 % 1019,1 hPa 0,0 l/m 2 min 0 min 691 W/m 9,0 km/h (2 Bft) 95,74 %
30.08.2018 14:16 19,5 C 20,6 C 18,3 C 64 % 1019,2 hPa 0,0 l/m 2 min 0 min 739 W/m 9,0 km/h (2 Bft) 97,83 %
30.08.2018 14:18 19,6 C 21,1 C 18,3 C 64 % 1019,2 hPa 0,0 l/m 2 min 0 min 754 W/m 6,8 km/h (2 Bft) 97,87 %
30.08.2018 14:20 19,7 C 21,1 C 18,3 C 63 % 1019,2 hPa 0,0 l/m 2 min 0 min 753 W/m 11,3 km/h (2 Bft) 97,87 %
30.08.2018 14:22 19,7 C 21,1 C 18,3 C 64 % 1019,2 hPa 0,0 l/m 2 min 0 min 751 W/m 9,0 km/h (2 Bft) 97,87 %
30.08.2018 14:24 19,8 C 21,1 C 18,3 C 62 % 1019,3 hPa 0,0 l/m 2 min 0 min 752 W/m 15,8 km/h (3 Bft) 97,87 %
30.08.2018 14:26 19,8 C 20,6 C 18,3 C 60 % 1019,3 hPa 0,0 l/m 2 min 0 min 746 W/m 15,8 km/h (3 Bft) 97,87 %
30.08.2018 14:28 19,9 C 20,6 C 18,3 C 60 % 1019,3 hPa 0,0 l/m 2 min 0 min 733 W/m 13,5 km/h (3 Bft) 97,83 %
30.08.2018 14:30 19,9 C 20,6 C 18,3 C 60 % 1019,3 hPa 0,0 l/m 2 min 0 min 736 W/m 11,3 km/h (2 Bft) 97,87 %
30.08.2018 14:32 19,9 C 20,6 C 18,3 C 60 % 1019,3 hPa 0,0 l/m 2 min 0 min 728 W/m 9,0 km/h (2 Bft) 97,14 %
30.08.2018 14:34 20,0 C 20,0 C 18,3 C 60 % 1019,1 hPa 0,0 l/m 2 min 0 min 728 W/m 11,3 km/h (2 Bft) 97,87 %
30.08.2018 14:36 20,0 C 19,4 C 17,8 C 60 % 1019,3 hPa 0,0 l/m 2 min 0 min 728 W/m 13,5 km/h (3 Bft) 95,74 %
30.08.2018 14:38 19,9 C 19,4 C 17,8 C 61 % 1019,3 hPa 0,0 l/m 0 min 0 min 180 W/m 9,0 km/h (2 Bft) 97,87 %
30.08.2018 14:40 19,9 C 19,4 C 17,8 C 61 % 1019,3 hPa 0,0 l/m 0 min 0 min 278 W/m 15,8 km/h (3 Bft) 97,87 %
30.08.2018 14:42 19,9 C 20,0 C 17,8 C 62 % 1019,2 hPa 0,0 l/m 2 min 0 min 726 W/m 11,3 km/h (2 Bft) 97,87 %
30.08.2018 14:44 19,9 C 20,0 C 18,3 C 62 % 1019,2 hPa 0,0 l/m 2 min 0 min 731 W/m 13,5 km/h (3 Bft) 97,83 %
30.08.2018 14:46 19,9 C 20,6 C 18,3 C 61 % 1019,2 hPa 0,0 l/m 2 min 0 min 738 W/m 13,5 km/h (3 Bft) 97,87 %
30.08.2018 14:48 19,9 C 20,6 C 18,3 C 61 % 1019,2 hPa 0,0 l/m 2 min 0 min 770 W/m 13,5 km/h (3 Bft) 97,87 %
30.08.2018 14:50 19,9 C 20,6 C 18,3 C 62 % 1019,2 hPa 0,0 l/m 2 min 0 min 795 W/m 11,3 km/h (2 Bft) 97,87 %
30.08.2018 14:52 20,0 C 21,1 C 18,9 C 61 % 1019,1 hPa 0,0 l/m 2 min 0 min 804 W/m 6,8 km/h (2 Bft) 97,87 %
30.08.2018 14:54 20,1 C 20,6 C 18,3 C 61 % 1019,2 hPa 0,0 l/m 0 min 0 min 316 W/m 6,8 km/h (2 Bft) 95,74 %
30.08.2018 14:56 20,1 C 20,6 C 18,3 C 62 % 1019,2 hPa 0,0 l/m 0 min 0 min 229 W/m 9,0 km/h (2 Bft) 97,83 %
30.08.2018 14:58 20,1 C 20,6 C 18,3 C 62 % 1019,2 hPa 0,0 l/m 0 min 0 min 236 W/m 15,8 km/h (3 Bft) 100,00 %
30.08.2018 15:00 20,1 C 20,0 C 17,8 C 61 % 1019,2 hPa 0,0 l/m 0 min 0 min 139 W/m 15,8 km/h (3 Bft) 100,00 %
30.08.2018 15:02 20,0 C 19,4 C 17,8 C 59 % 1019,2 hPa 0,0 l/m 0 min 0 min 139 W/m 22,5 km/h (4 Bft) 100,00 %
30.08.2018 15:04 19,9 C 18,9 C 17,8 C 60 % 1019,2 hPa 0,0 l/m 0 min 0 min 147 W/m 18,0 km/h (3 Bft) 97,87 %
30.08.2018 15:06 19,9 C 18,9 C 17,2 C 61 % 1019,2 hPa 0,0 l/m 0 min 0 min 149 W/m 11,3 km/h (2 Bft) 100,00 %
30.08.2018 15:08 19,8 C 18,9 C 17,2 C 60 % 1019,3 hPa 0,0 l/m 0 min 0 min 158 W/m 13,5 km/h (3 Bft) 100,00 %
30.08.2018 15:10 19,8 C 18,9 C 17,2 C 61 % 1019,3 hPa 0,0 l/m 0 min 0 min 172 W/m 15,8 km/h (3 Bft) 95,74 %
30.08.2018 15:12 19,7 C 18,9 C 17,2 C 62 % 1019,2 hPa 0,0 l/m 0 min 0 min 179 W/m 18,0 km/h (3 Bft) 95,74 %
30.08.2018 15:14 19,7 C 18,9 C 17,2 C 63 % 1019,2 hPa 0,0 l/m 0 min 0 min 258 W/m 18,0 km/h (3 Bft) 100,00 %
30.08.2018 15:16 19,6 C 18,9 C 17,2 C 63 % 1019,3 hPa 0,0 l/m 0 min 0 min 237 W/m 9,0 km/h (2 Bft) 100,00 %
30.08.2018 15:18 19,5 C 19,4 C 17,8 C 63 % 1019,2 hPa 0,0 l/m 2 min 0 min 432 W/m 9,0 km/h (2 Bft) 95,74 %
30.08.2018 15:20 19,5 C 20,0 C 17,8 C 63 % 1019,2 hPa 0,0 l/m 2 min 0 min 671 W/m 13,5 km/h (3 Bft) 97,87 %
30.08.2018 15:22 19,5 C 20,0 C 17,8 C 62 % 1019,2 hPa 0,0 l/m 2 min 0 min 671 W/m 6,8 km/h (2 Bft) 100,00 %
30.08.2018 15:24 19,5 C 20,0 C 17,8 C 63 % 1019,3 hPa 0,0 l/m 2 min 0 min 671 W/m 13,5 km/h (3 Bft) 97,87 %
30.08.2018 15:26 19,5 C 20,0 C 17,8 C 64 % 1019,3 hPa 0,0 l/m 2 min 0 min 505 W/m 11,3 km/h (2 Bft) 97,83 %
30.08.2018 15:28 19,5 C 20,0 C 17,8 C 65 % 1019,3 hPa 0,0 l/m 2 min 0 min 349 W/m 13,5 km/h (3 Bft) 97,87 %
30.08.2018 15:30 19,5 C 20,0 C 17,8 C 64 % 1019,2 hPa 0,0 l/m 0 min 0 min 262 W/m 11,3 km/h (2 Bft) 97,87 %
30.08.2018 15:32 19,6 C 20,0 C 17,8 C 64 % 1019,2 hPa 0,0 l/m 0 min 0 min 212 W/m 11,3 km/h (2 Bft) 94,29 %
30.08.2018 15:34 19,6 C 20,0 C 17,8 C 64 % 1019,3 hPa 0,0 l/m 0 min 0 min 209 W/m 6,8 km/h (2 Bft) 97,87 %
30.08.2018 15:36 19,6 C 19,4 C 17,8 C 65 % 1019,3 hPa 0,0 l/m 0 min 0 min 214 W/m 11,3 km/h (2 Bft) 97,87 %
30.08.2018 15:38 19,6 C 19,4 C 17,8 C 65 % 1019,2 hPa 0,0 l/m 0 min 0 min 214 W/m 15,8 km/h (3 Bft) 97,87 %
30.08.2018 15:40 19,6 C 19,4 C 17,8 C 64 % 1019,3 hPa 0,0 l/m 0 min 0 min 213 W/m 18,0 km/h (3 Bft) 97,87 %
30.08.2018 15:42 19,6 C 19,4 C 17,8 C 64 % 1019,4 hPa 0,0 l/m 0 min 0 min 221 W/m 11,3 km/h (2 Bft) 97,83 %
30.08.2018 15:44 19,5 C 19,4 C 17,8 C 63 % 1019,4 hPa 0,0 l/m 0 min 0 min 240 W/m 18,0 km/h (3 Bft) 97,87 %
30.08.2018 15:46 19,5 C 19,4 C 17,8 C 64 % 1019,4 hPa 0,0 l/m 0 min 0 min 270 W/m 11,3 km/h (2 Bft) 97,87 %
30.08.2018 15:48 19,5 C 20,0 C 17,8 C 64 % 1019,4 hPa 0,0 l/m 0 min 0 min 283 W/m 20,3 km/h (4 Bft) 97,87 %
30.08.2018 15:50 19,4 C 20,0 C 17,8 C 63 % 1019,4 hPa 0,0 l/m 0 min 0 min 271 W/m 18,0 km/h (3 Bft) 96,55 %
30.08.2018 15:52 19,5 C 20,0 C 17,8 C 63 % 1019,3 hPa 0,0 l/m 0 min 0 min 263 W/m 11,3 km/h (2 Bft) 100,00 %
30.08.2018 15:54 19,5 C 20,6 C 18,3 C 62 % 1019,4 hPa 0,0 l/m 0 min 0 min 239 W/m 15,8 km/h (3 Bft) 97,83 %
30.08.2018 15:56 19,5 C 20,0 C 17,8 C 62 % 1019,5 hPa 0,0 l/m 0 min 0 min 215 W/m 13,5 km/h (3 Bft) 95,74 %
30.08.2018 15:58 19,5 C 19,4 C 17,8 C 62 % 1019,5 hPa 0,0 l/m 0 min 0 min 202 W/m 11,3 km/h (2 Bft) 95,74 %
30.08.2018 16:00 19,5 C 19,4 C 17,8 C 63 % 1019,5 hPa 0,0 l/m 0 min 0 min 251 W/m 6,8 km/h (2 Bft) 95,74 %
30.08.2018 16:02 19,4 C 19,4 C 17,8 C 63 % 1019,4 hPa 0,0 l/m 0 min 0 min 240 W/m 11,3 km/h (2 Bft) 95,74 %
30.08.2018 16:04 19,5 C 20,0 C 17,8 C 63 % 1019,4 hPa 0,0 l/m 0 min 0 min 205 W/m 13,5 km/h (3 Bft) 93,62 %
30.08.2018 16:06 19,5 C 20,6 C 18,3 C 63 % 1019,4 hPa 0,0 l/m 0 min 0 min 168 W/m 11,3 km/h (2 Bft) 96,55 %
30.08.2018 16:08 19,6 C 20,6 C 18,3 C 64 % 1019,5 hPa 0,0 l/m 0 min 0 min 172 W/m 11,3 km/h (2 Bft) 95,74 %
30.08.2018 16:10 19,6 C 20,6 C 18,3 C 61 % 1019,5 hPa 0,0 l/m 0 min 0 min 172 W/m 11,3 km/h (2 Bft) 97,87 %
30.08.2018 16:12 19,7 C 20,6 C 18,3 C 61 % 1019,5 hPa 0,0 l/m 0 min 0 min 172 W/m 11,3 km/h (2 Bft) 95,74 %
30.08.2018 16:14 19,7 C 20,6 C 18,3 C 61 % 1019,5 hPa 0,0 l/m 0 min 0 min 273 W/m 6,8 km/h (2 Bft) 95,65 %
30.08.2018 16:16 19,7 C 21,1 C 18,3 C 61 % 1019,4 hPa 0,0 l/m 2 min 0 min 575 W/m 4,5 km/h (1 Bft) 95,83 %
30.08.2018 16:18 19,8 C 22,2 C 18,3 C 59 % 1019,4 hPa 0,0 l/m 2 min 0 min 344 W/m 15,8 km/h (3 Bft) 97,87 %
30.08.2018 16:20 19,8 C 22,8 C 18,3 C 58 % 1019,4 hPa 0,0 l/m 0 min 0 min 209 W/m 20,3 km/h (4 Bft) 97,87 %
30.08.2018 16:22 19,9 C 23,3 C 18,3 C 60 % 1019,4 hPa 0,0 l/m 2 min 0 min 402 W/m 11,3 km/h (2 Bft) 97,87 %
30.08.2018 16:24 19,9 C 23,3 C 18,3 C 59 % 1019,3 hPa 0,0 l/m 2 min 0 min 577 W/m 15,8 km/h (3 Bft) 95,65 %
30.08.2018 16:26 20,0 C 22,8 C 18,3 C 58 % 1019,3 hPa 0,0 l/m 2 min 0 min 574 W/m 20,3 km/h (4 Bft) 97,87 %
30.08.2018 16:28 20,1 C 22,8 C 18,3 C 58 % 1019,3 hPa 0,0 l/m 2 min 0 min 575 W/m 11,3 km/h (2 Bft) 97,87 %
30.08.2018 16:30 20,1 C 22,2 C 18,9 C 59 % 1019,3 hPa 0,0 l/m 2 min 0 min 570 W/m 9,0 km/h (2 Bft) 97,87 %
30.08.2018 16:32 20,2 C 21,7 C 18,9 C 60 % 1019,3 hPa 0,0 l/m 2 min 0 min 563 W/m 6,8 km/h (2 Bft) 100,00 %
30.08.2018 16:34 20,2 C 21,7 C 18,9 C 60 % 1019,4 hPa 0,0 l/m 2 min 0 min 558 W/m 4,5 km/h (1 Bft) 97,87 %
30.08.2018 16:36 20,2 C 21,1 C 18,9 C 60 % 1019,4 hPa 0,0 l/m 2 min 0 min 557 W/m 6,8 km/h (2 Bft) 93,62 %
30.08.2018 16:38 20,3 C 21,1 C 18,9 C 59 % 1019,3 hPa 0,0 l/m 2 min 0 min 558 W/m 11,3 km/h (2 Bft) 97,87 %
30.08.2018 16:40 20,3 C 21,7 C 18,9 C 59 % 1019,4 hPa 0,0 l/m 2 min 0 min 556 W/m 9,0 km/h (2 Bft) 97,83 %
30.08.2018 16:42 20,3 C 21,7 C 18,9 C 55 % 1019,2 hPa 0,0 l/m 2 min 0 min 551 W/m 13,5 km/h (3 Bft) 97,87 %
30.08.2018 16:44 20,4 C 22,2 C 18,9 C 55 % 1019,3 hPa 0,0 l/m 2 min 0 min 550 W/m 9,0 km/h (2 Bft) 95,74 %
30.08.2018 16:46 20,4 C 22,2 C 18,9 C 56 % 1019,3 hPa 0,0 l/m 2 min 0 min 543 W/m 11,3 km/h (2 Bft) 97,87 %
30.08.2018 16:48 20,4 C 22,2 C 18,9 C 55 % 1019,3 hPa 0,0 l/m 2 min 0 min 544 W/m 15,8 km/h (3 Bft) 97,87 %
30.08.2018 16:50 20,5 C 21,7 C 18,9 C 55 % 1019,3 hPa 0,0 l/m 2 min 0 min 540 W/m 11,3 km/h (2 Bft) 94,83 %
30.08.2018 16:52 20,5 C 21,7 C 18,9 C 54 % 1019,3 hPa 0,0 l/m 2 min 0 min 542 W/m 11,3 km/h (2 Bft) 100,00 %
30.08.2018 16:54 20,6 C 21,7 C 18,9 C 54 % 1019,3 hPa 0,0 l/m 2 min 0 min 539 W/m 4,5 km/h (1 Bft) 95,74 %
30.08.2018 16:56 20,6 C 21,7 C 18,9 C 55 % 1019,2 hPa 0,0 l/m 2 min 0 min 531 W/m 6,8 km/h (2 Bft) 97,87 %
30.08.2018 16:58 20,6 C 22,2 C 18,9 C 57 % 1019,3 hPa 0,0 l/m 2 min 0 min 529 W/m 9,0 km/h (2 Bft) 97,87 %
30.08.2018 17:00 20,7 C 22,2 C 18,9 C 55 % 1019,2 hPa 0,0 l/m 2 min 0 min 530 W/m 6,8 km/h (2 Bft) 95,74 %
30.08.2018 17:02 20,7 C 21,7 C 18,9 C 55 % 1019,3 hPa 0,0 l/m 2 min 0 min 538 W/m 9,0 km/h (2 Bft) 97,87 %
30.08.2018 17:04 20,7 C 21,1 C 18,9 C 55 % 1019,3 hPa 0,0 l/m 2 min 0 min 384 W/m 6,8 km/h (2 Bft) 97,83 %
30.08.2018 17:06 20,7 C 21,1 C 18,9 C 55 % 1019,2 hPa 0,0 l/m 2 min 0 min 432 W/m 9,0 km/h (2 Bft) 98,15 %
30.08.2018 17:08 20,8 C 21,1 C 18,9 C 57 % 1019,2 hPa 0,0 l/m 2 min 0 min 527 W/m 6,8 km/h (2 Bft) 95,74 %
30.08.2018 17:10 20,8 C 21,1 C 18,9 C 56 % 1019,2 hPa 0,0 l/m 2 min 0 min 421 W/m 6,8 km/h (2 Bft) 97,87 %
30.08.2018 17:12 20,8 C 21,1 C 18,9 C 56 % 1019,2 hPa 0,0 l/m 2 min 0 min 416 W/m 9,0 km/h (2 Bft) 97,83 %
30.08.2018 17:14 20,8 C 21,7 C 18,9 C 56 % 1019,2 hPa 0,0 l/m 2 min 0 min 508 W/m 13,5 km/h (3 Bft) 95,74 %
30.08.2018 17:16 20,9 C 21,7 C 18,9 C 57 % 1019,2 hPa 0,0 l/m 2 min 0 min 506 W/m 9,0 km/h (2 Bft) 97,87 %
30.08.2018 17:18 20,9 C 21,7 C 18,9 C 57 % 1019,2 hPa 0,0 l/m 2 min 0 min 499 W/m 9,0 km/h (2 Bft) 97,87 %
30.08.2018 17:20 20,9 C 21,7 C 18,9 C 56 % 1019,2 hPa 0,0 l/m 2 min 0 min 472 W/m 11,3 km/h (2 Bft) 97,87 %
30.08.2018 17:22 20,9 C 21,1 C 18,9 C 55 % 1019,3 hPa 0,0 l/m 2 min 0 min 466 W/m 13,5 km/h (3 Bft) 97,83 %
30.08.2018 17:24 20,9 C 21,1 C 18,9 C 55 % 1019,4 hPa 0,0 l/m 2 min 0 min 463 W/m 9,0 km/h (2 Bft) 100,00 %
30.08.2018 17:26 20,9 C 21,1 C 18,9 C 55 % 1019,4 hPa 0,0 l/m 2 min 0 min 469 W/m 9,0 km/h (2 Bft) 95,74 %
30.08.2018 17:28 20,9 C 21,1 C 18,9 C 55 % 1019,4 hPa 0,0 l/m 2 min 0 min 489 W/m 6,8 km/h (2 Bft) 97,87 %
30.08.2018 17:30 20,9 C 21,1 C 18,9 C 56 % 1019,3 hPa 0,0 l/m 2 min 0 min 487 W/m 6,8 km/h (2 Bft) 100,00 %
30.08.2018 17:32 20,9 C 21,1 C 18,9 C 56 % 1019,4 hPa 0,0 l/m 2 min 0 min 475 W/m 4,5 km/h (1 Bft) 100,00 %
30.08.2018 17:34 20,9 C 21,7 C 18,9 C 57 % 1019,4 hPa 0,0 l/m 2 min 0 min 474 W/m 6,8 km/h (2 Bft) 100,00 %
30.08.2018 17:36 21,0 C 21,7 C 18,9 C 57 % 1019,4 hPa 0,0 l/m 2 min 0 min 444 W/m 4,5 km/h (1 Bft) 97,87 %
30.08.2018 17:38 21,0 C 21,7 C 19,4 C 57 % 1019,4 hPa 0,0 l/m 2 min 0 min 464 W/m 4,5 km/h (1 Bft) 100,00 %
30.08.2018 17:40 21,0 C 21,7 C 18,9 C 57 % 1019,4 hPa 0,0 l/m 2 min 0 min 404 W/m 6,8 km/h (2 Bft) 100,00 %
30.08.2018 17:42 21,0 C 21,7 C 18,9 C 57 % 1019,4 hPa 0,0 l/m 2 min 0 min 350 W/m 9,0 km/h (2 Bft) 100,00 %
30.08.2018 17:44 21,0 C 21,1 C 18,9 C 56 % 1019,4 hPa 0,0 l/m 2 min 0 min 407 W/m 6,8 km/h (2 Bft) 100,00 %
30.08.2018 17:46 21,0 C 21,1 C 18,9 C 57 % 1019,4 hPa 0,0 l/m 2 min 0 min 278 W/m 9,0 km/h (2 Bft) 95,65 %
30.08.2018 17:48 21,0 C 20,6 C 18,3 C 56 % 1019,3 hPa 0,0 l/m 0 min 0 min 111 W/m 13,5 km/h (3 Bft) 100,00 %
30.08.2018 17:50 21,0 C 20,6 C 18,3 C 56 % 1019,3 hPa 0,0 l/m 2 min 0 min 222 W/m 9,0 km/h (2 Bft) 100,00 %
30.08.2018 17:52 20,9 C 20,6 C 18,3 C 56 % 1019,3 hPa 0,0 l/m 2 min 0 min 391 W/m 6,8 km/h (2 Bft) 100,00 %
30.08.2018 17:54 20,9 C 20,6 C 18,3 C 57 % 1019,3 hPa 0,0 l/m 2 min 0 min 385 W/m 11,3 km/h (2 Bft) 100,00 %
30.08.2018 17:56 20,9 C 20,6 C 18,3 C 56 % 1019,3 hPa 0,0 l/m 2 min 0 min 402 W/m 6,8 km/h (2 Bft) 100,00 %
30.08.2018 17:58 20,9 C 20,6 C 18,9 C 56 % 1019,4 hPa 0,0 l/m 2 min 0 min 410 W/m 6,8 km/h (2 Bft) 100,00 %
30.08.2018 18:00 20,8 C 21,1 C 18,3 C 56 % 1019,4 hPa 0,0 l/m 2 min 0 min 411 W/m 9,0 km/h (2 Bft) 100,00 %
30.08.2018 18:02 20,8 C 20,6 C 18,3 C 55 % 1019,4 hPa 0,0 l/m 2 min 0 min 403 W/m 4,5 km/h (1 Bft) 100,00 %
30.08.2018 18:04 20,8 C 21,1 C 18,9 C 56 % 1019,4 hPa 0,0 l/m 2 min 0 min 386 W/m 6,8 km/h (2 Bft) 100,00 %
30.08.2018 18:06 20,8 C 21,1 C 18,9 C 58 % 1019,4 hPa 0,0 l/m 2 min 0 min 343 W/m 6,8 km/h (2 Bft) 100,00 %
30.08.2018 18:08 20,8 C 20,6 C 18,9 C 56 % 1019,3 hPa 0,0 l/m 2 min 0 min 219 W/m 9,0 km/h (2 Bft) 100,00 %
30.08.2018 18:10 20,8 C 20,6 C 18,9 C 57 % 1019,3 hPa 0,0 l/m 2 min 0 min 226 W/m 6,8 km/h (2 Bft) 100,00 %
30.08.2018 18:12 20,8 C 20,0 C 18,9 C 56 % 1019,3 hPa 0,0 l/m 2 min 0 min 300 W/m 4,5 km/h (1 Bft) 100,00 %
30.08.2018 18:14 20,8 C 20,6 C 18,9 C 56 % 1019,3 hPa 0,0 l/m 2 min 0 min 307 W/m 9,0 km/h (2 Bft) 100,00 %
30.08.2018 18:16 20,8 C 20,6 C 18,9 C 57 % 1019,4 hPa 0,0 l/m 2 min 0 min 314 W/m 6,8 km/h (2 Bft) 97,87 %
30.08.2018 18:18 20,7 C 20,6 C 18,9 C 56 % 1019,3 hPa 0,0 l/m 2 min 0 min 337 W/m 4,5 km/h (1 Bft) 97,87 %
30.08.2018 18:20 20,7 C 20,6 C 18,9 C 56 % 1019,2 hPa 0,0 l/m 2 min 0 min 345 W/m 9,0 km/h (2 Bft) 100,00 %
30.08.2018 18:22 20,7 C 20,6 C 18,9 C 56 % 1019,2 hPa 0,0 l/m 2 min 0 min 365 W/m 9,0 km/h (2 Bft) 97,87 %
30.08.2018 18:24 20,7 C 20,6 C 18,9 C 56 % 1019,2 hPa 0,0 l/m 2 min 0 min 361 W/m 6,8 km/h (2 Bft) 97,87 %
30.08.2018 18:26 20,7 C 20,6 C 18,9 C 57 % 1019,3 hPa 0,0 l/m 2 min 0 min 331 W/m 11,3 km/h (2 Bft) 97,83 %
30.08.2018 18:28 20,7 C 20,6 C 18,9 C 56 % 1019,2 hPa 0,0 l/m 2 min 0 min 303 W/m 6,8 km/h (2 Bft) 100,00 %
30.08.2018 18:30 20,7 C 20,6 C 18,9 C 56 % 1019,2 hPa 0,0 l/m 2 min 0 min 252 W/m 4,5 km/h (1 Bft) 100,00 %
30.08.2018 18:32 20,7 C 20,6 C 18,9 C 56 % 1019,2 hPa 0,0 l/m 2 min 0 min 205 W/m 4,5 km/h (1 Bft) 100,00 %
30.08.2018 18:34 20,7 C 20,0 C 18,9 C 56 % 1019,2 hPa 0,0 l/m 2 min 0 min 190 W/m 4,5 km/h (1 Bft) 97,87 %
30.08.2018 18:36 20,7 C 20,0 C 18,9 C 55 % 1019,2 hPa 0,0 l/m 0 min 0 min 120 W/m 4,5 km/h (1 Bft) 97,83 %
30.08.2018 18:38 20,7 C 20,0 C 18,9 C 55 % 1019,3 hPa 0,0 l/m 2 min 0 min 142 W/m 4,5 km/h (1 Bft) 100,00 %
30.08.2018 18:40 20,7 C 20,0 C 18,3 C 56 % 1019,3 hPa 0,0 l/m 2 min 0 min 177 W/m 6,8 km/h (2 Bft) 97,87 %
30.08.2018 18:42 20,6 C 19,4 C 18,3 C 56 % 1019,3 hPa 0,0 l/m 0 min 0 min 122 W/m 6,8 km/h (2 Bft) 93,62 %
30.08.2018 18:44 20,6 C 20,0 C 18,3 C 56 % 1019,3 hPa 0,0 l/m 0 min 0 min 114 W/m 4,5 km/h (1 Bft) 95,74 %
30.08.2018 18:46 20,6 C 20,0 C 18,3 C 56 % 1019,3 hPa 0,0 l/m 0 min 0 min 116 W/m 11,3 km/h (2 Bft) 95,74 %
30.08.2018 18:48 20,5 C 20,0 C 18,3 C 57 % 1019,3 hPa 0,0 l/m 2 min 0 min 125 W/m 13,5 km/h (3 Bft) 95,74 %
30.08.2018 18:52 20,4 C 19,4 C 18,3 C 57 % 1019,3 hPa 0,0 l/m 4 min 0 min 122 W/m 18,0 km/h (3 Bft) 95,74 %
30.08.2018 18:54 20,4 C 19,4 C 18,3 C 58 % 1019,3 hPa 0,0 l/m 2 min 0 min 120 W/m 11,3 km/h (2 Bft) 95,74 %
30.08.2018 18:56 20,3 C 19,4 C 18,3 C 58 % 1019,3 hPa 0,0 l/m 2 min 0 min 112 W/m 11,3 km/h (2 Bft) 95,74 %
30.08.2018 18:58 20,3 C 19,4 C 18,3 C 58 % 1019,3 hPa 0,0 l/m 0 min 0 min 104 W/m 9,0 km/h (2 Bft) 95,74 %
30.08.2018 19:00 20,2 C 19,4 C 18,3 C 59 % 1019,4 hPa 0,0 l/m 0 min 0 min 99 W/m 15,8 km/h (3 Bft) 95,74 %
30.08.2018 19:02 20,2 C 19,4 C 18,3 C 59 % 1019,3 hPa 0,0 l/m 0 min 0 min 93 W/m 11,3 km/h (2 Bft) 95,65 %
30.08.2018 19:04 20,1 C 19,4 C 17,8 C 58 % 1019,3 hPa 0,0 l/m 0 min 0 min 83 W/m 11,3 km/h (2 Bft) 91,49 %
30.08.2018 19:06 20,1 C 19,4 C 17,8 C 59 % 1019,3 hPa 0,0 l/m 0 min 0 min 78 W/m 6,8 km/h (2 Bft) 94,34 %
30.08.2018 19:08 20,0 C 19,4 C 17,8 C 59 % 1019,3 hPa 0,0 l/m 0 min 0 min 74 W/m 6,8 km/h (2 Bft) 91,49 %
30.08.2018 19:10 19,9 C 18,9 C 17,8 C 58 % 1019,3 hPa 0,0 l/m 0 min 0 min 68 W/m 11,3 km/h (2 Bft) 91,30 %
30.08.2018 19:12 19,9 C 18,9 C 17,8 C 58 % 1019,3 hPa 0,0 l/m 0 min 0 min 64 W/m 9,0 km/h (2 Bft) 93,62 %
30.08.2018 19:14 19,9 C 18,9 C 17,8 C 58 % 1019,4 hPa 0,0 l/m 0 min 0 min 61 W/m 11,3 km/h (2 Bft) 91,49 %
30.08.2018 19:16 19,8 C 18,9 C 17,8 C 58 % 1019,3 hPa 0,0 l/m 0 min 0 min 59 W/m 11,3 km/h (2 Bft) 90,24 %
30.08.2018 19:18 19,8 C 18,9 C 17,8 C 58 % 1019,3 hPa 0,0 l/m 0 min 0 min 55 W/m 13,5 km/h (3 Bft) 93,62 %
30.08.2018 19:20 19,7 C 18,9 C 17,8 C 58 % 1019,3 hPa 0,0 l/m 0 min 0 min 54 W/m 9,0 km/h (2 Bft) 93,62 %
30.08.2018 19:22 19,7 C 18,3 C 17,8 C 59 % 1019,3 hPa 0,0 l/m 0 min 0 min 53 W/m 11,3 km/h (2 Bft) 92,45 %
30.08.2018 19:24 19,6 C 18,3 C 17,8 C 59 % 1019,3 hPa 0,0 l/m 0 min 0 min 53 W/m 11,3 km/h (2 Bft) 93,62 %
30.08.2018 19:26 19,6 C 18,3 C 17,2 C 59 % 1019,3 hPa 0,0 l/m 0 min 0 min 50 W/m 9,0 km/h (2 Bft) 91,49 %
30.08.2018 19:28 19,5 C 18,3 C 17,2 C 59 % 1019,3 hPa 0,0 l/m 0 min 0 min 47 W/m 6,8 km/h (2 Bft) 93,62 %
30.08.2018 19:30 19,5 C 17,8 C 17,2 C 60 % 1019,3 hPa 0,0 l/m 0 min 0 min 45 W/m 13,5 km/h (3 Bft) 95,74 %
30.08.2018 19:32 19,4 C 17,8 C 17,2 C 60 % 1019,3 hPa 0,0 l/m 0 min 0 min 43 W/m 9,0 km/h (2 Bft) 95,92 %
30.08.2018 19:34 19,4 C 17,8 C 17,2 C 60 % 1019,3 hPa 0,0 l/m 0 min 0 min 40 W/m 13,5 km/h (3 Bft) 97,87 %
30.08.2018 19:36 19,3 C 17,8 C 17,2 C 60 % 1019,3 hPa 0,0 l/m 0 min 0 min 37 W/m 13,5 km/h (3 Bft) 93,62 %
30.08.2018 19:38 19,3 C 17,8 C 17,2 C 60 % 1019,4 hPa 0,0 l/m 0 min 0 min 35 W/m 9,0 km/h (2 Bft) 97,87 %
30.08.2018 19:40 19,2 C 17,8 C 17,2 C 61 % 1019,3 hPa 0,0 l/m 0 min 0 min 33 W/m 4,5 km/h (1 Bft) 97,87 %
30.08.2018 19:42 19,2 C 17,8 C 17,2 C 61 % 1019,3 hPa 0,0 l/m 0 min 0 min 32 W/m 9,0 km/h (2 Bft) 95,74 %
30.08.2018 19:44 19,1 C 17,2 C 17,2 C 62 % 1019,3 hPa 0,0 l/m 0 min 0 min 31 W/m 9,0 km/h (2 Bft) 97,83 %
30.08.2018 19:46 19,1 C 17,2 C 16,7 C 63 % 1019,3 hPa 0,0 l/m 0 min 0 min 30 W/m 9,0 km/h (2 Bft) 97,87 %
30.08.2018 19:48 18,9 C 17,2 C 16,7 C 62 % 1019,3 hPa 0,0 l/m 0 min 0 min 28 W/m 4,5 km/h (1 Bft) 100,00 %
30.08.2018 19:50 18,9 C 17,2 C 16,7 C 63 % 1019,4 hPa 0,0 l/m 0 min 0 min 28 W/m 6,8 km/h (2 Bft) 93,62 %
30.08.2018 19:52 18,8 C 17,2 C 16,7 C 63 % 1019,4 hPa 0,0 l/m 0 min 0 min 26 W/m 4,5 km/h (1 Bft) 100,00 %
30.08.2018 19:54 18,7 C 17,2 C 16,7 C 64 % 1019,4 hPa 0,0 l/m 0 min 0 min 25 W/m 6,8 km/h (2 Bft) 97,87 %
30.08.2018 19:56 18,7 C 16,7 C 16,7 C 64 % 1019,4 hPa 0,0 l/m 0 min 0 min 24 W/m 2,3 km/h (1 Bft) 97,83 %
30.08.2018 19:58 18,7 C 16,7 C 16,7 C 65 % 1019,4 hPa 0,0 l/m 0 min 0 min 21 W/m 9,0 km/h (2 Bft) 100,00 %
30.08.2018 20:00 18,6 C 16,7 C 16,7 C 65 % 1019,4 hPa 0,0 l/m 0 min 0 min 20 W/m 6,8 km/h (2 Bft) 95,74 %
30.08.2018 20:02 18,6 C 16,7 C 16,7 C 65 % 1019,5 hPa 0,0 l/m 0 min 0 min 18 W/m 4,5 km/h (1 Bft) 100,00 %
30.08.2018 20:04 18,5 C 16,7 C 16,7 C 66 % 1019,5 hPa 0,0 l/m 0 min 0 min 16 W/m 6,8 km/h (2 Bft) 100,00 %
30.08.2018 20:06 18,4 C 16,7 C 16,7 C 66 % 1019,5 hPa 0,0 l/m 0 min 0 min 15 W/m 9,0 km/h (2 Bft) 100,00 %
30.08.2018 20:08 18,4 C 16,7 C 16,1 C 66 % 1019,5 hPa 0,0 l/m 0 min 0 min 14 W/m 6,8 km/h (2 Bft) 100,00 %
30.08.2018 20:10 18,3 C 16,7 C 16,1 C 66 % 1019,5 hPa 0,0 l/m 0 min 0 min 12 W/m 6,8 km/h (2 Bft) 100,00 %
30.08.2018 20:12 18,3 C 16,1 C 16,1 C 67 % 1019,5 hPa 0,0 l/m 0 min 0 min 11 W/m 6,8 km/h (2 Bft) 100,00 %
30.08.2018 20:14 18,2 C 16,1 C 16,1 C 67 % 1019,5 hPa 0,0 l/m 0 min 0 min 10 W/m 6,8 km/h (2 Bft) 100,00 %
30.08.2018 20:16 18,2 C 16,1 C 16,1 C 67 % 1019,5 hPa 0,0 l/m 0 min 0 min 8 W/m 6,8 km/h (2 Bft) 97,87 %
30.08.2018 20:18 18,1 C 16,1 C 16,1 C 67 % 1019,6 hPa 0,0 l/m 0 min 0 min 7 W/m 2,3 km/h (1 Bft) 100,00 %
30.08.2018 20:20 18,1 C 16,1 C 16,1 C 68 % 1019,6 hPa 0,0 l/m 0 min 0 min 6 W/m 0,0 km/h (0 Bft) 97,83 %
30.08.2018 20:22 18,0 C 16,1 C 16,1 C 68 % 1019,7 hPa 0,0 l/m 0 min 0 min 5 W/m 4,5 km/h (1 Bft) 100,00 %
30.08.2018 20:24 17,9 C 16,1 C 16,1 C 68 % 1019,8 hPa 0,0 l/m 0 min 0 min 0 W/m 2,3 km/h (1 Bft) 100,00 %
30.08.2018 20:26 17,9 C 15,6 C 15,6 C 69 % 1019,7 hPa 0,0 l/m 0 min 0 min 0 W/m 0,0 km/h (0 Bft) 100,00 %
30.08.2018 20:28 17,8 C 15,6 C 15,6 C 69 % 1019,8 hPa 0,0 l/m 0 min 0 min 0 W/m 2,3 km/h (1 Bft) 100,00 %
30.08.2018 20:30 17,8 C 15,6 C 15,6 C 69 % 1019,8 hPa 0,0 l/m 0 min 0 min 0 W/m 0,0 km/h (0 Bft) 100,00 %
30.08.2018 20:32 17,8 C 15,6 C 15,6 C 69 % 1019,8 hPa 0,0 l/m 0 min 0 min 0 W/m 2,3 km/h (1 Bft) 97,37 %
30.08.2018 20:34 17,7 C 15,6 C 15,0 C 70 % 1019,9 hPa 0,0 l/m 0 min 0 min 0 W/m 2,3 km/h (1 Bft) 97,83 %
30.08.2018 20:36 17,7 C 15,6 C 15,0 C 70 % 1019,8 hPa 0,0 l/m 0 min 0 min 0 W/m 0,0 km/h (0 Bft) 100,00 %
30.08.2018 20:38 17,6 C 15,0 C 15,0 C 70 % 1019,8 hPa 0,0 l/m 0 min 0 min 0 W/m 0,0 km/h (0 Bft) 100,00 %
30.08.2018 20:40 17,5 C 15,0 C 15,0 C 70 % 1019,8 hPa 0,0 l/m 0 min 0 min 0 W/m 0,0 km/h (0 Bft) 100,00 %
30.08.2018 20:42 17,4 C 15,0 C 15,0 C 71 % 1019,8 hPa 0,0 l/m 0 min 0 min 0 W/m 0,0 km/h (0 Bft) 100,00 %
30.08.2018 20:44 17,4 C 15,0 C 15,0 C 71 % 1019,8 hPa 0,0 l/m 0 min 0 min 0 W/m 0,0 km/h (0 Bft) 100,00 %
30.08.2018 20:46 17,3 C 15,0 C 15,0 C 71 % 1019,8 hPa 0,0 l/m 0 min 0 min 0 W/m 0,0 km/h (0 Bft) 97,87 %
30.08.2018 20:48 17,3 C 15,0 C 15,0 C 71 % 1019,9 hPa 0,0 l/m 0 min 0 min 0 W/m 4,5 km/h (1 Bft) 100,00 %
30.08.2018 20:50 17,2 C 14,4 C 15,0 C 72 % 1019,8 hPa 0,0 l/m 0 min 0 min 0 W/m 2,3 km/h (1 Bft) 100,00 %
30.08.2018 20:52 17,1 C 14,4 C 15,0 C 72 % 1019,8 hPa 0,0 l/m 0 min 0 min 0 W/m 4,5 km/h (1 Bft) 100,00 %
30.08.2018 20:54 17,1 C 14,4 C 15,0 C 72 % 1019,9 hPa 0,0 l/m 0 min 0 min 0 W/m 4,5 km/h (1 Bft) 100,00 %
30.08.2018 20:56 16,9 C 14,4 C 15,0 C 72 % 1019,8 hPa 0,0 l/m 0 min 0 min 0 W/m 4,5 km/h (1 Bft) 100,00 %
30.08.2018 20:58 16,9 C 14,4 C 15,0 C 72 % 1019,9 hPa 0,0 l/m 0 min 0 min 0 W/m 2,3 km/h (1 Bft) 97,87 %
30.08.2018 21:00 16,8 C 14,4 C 15,0 C 72 % 1019,9 hPa 0,0 l/m 0 min 0 min 0 W/m 6,8 km/h (2 Bft) 100,00 %
30.08.2018 21:02 16,8 C 14,4 C 15,0 C 72 % 1019,8 hPa 0,0 l/m 0 min 0 min 0 W/m 4,5 km/h (1 Bft) 100,00 %
30.08.2018 21:04 16,7 C 14,4 C 15,0 C 72 % 1019,9 hPa 0,0 l/m 0 min 0 min 0 W/m 2,3 km/h (1 Bft) 100,00 %
30.08.2018 21:06 16,7 C 14,4 C 15,0 C 72 % 1020,0 hPa 0,0 l/m 0 min 0 min 0 W/m 4,5 km/h (1 Bft) 100,00 %
30.08.2018 21:08 16,6 C 14,4 C 15,0 C 72 % 1019,9 hPa 0,0 l/m 0 min 0 min 0 W/m 2,3 km/h (1 Bft) 97,83 %
30.08.2018 21:10 16,5 C 14,4 C 15,0 C 72 % 1020,0 hPa 0,0 l/m 0 min 0 min 0 W/m 0,0 km/h (0 Bft) 97,87 %
30.08.2018 21:12 16,5 C 14,4 C 15,0 C 72 % 1020,1 hPa 0,0 l/m 0 min 0 min 0 W/m 0,0 km/h (0 Bft) 97,87 %
30.08.2018 21:14 16,4 C 14,4 C 15,0 C 72 % 1020,1 hPa 0,0 l/m 0 min 0 min 0 W/m 4,5 km/h (1 Bft) 97,87 %
30.08.2018 21:16 16,4 C 14,4 C 15,0 C 73 % 1020,1 hPa 0,0 l/m 0 min 0 min 0 W/m 6,8 km/h (2 Bft) 97,87 %
30.08.2018 21:18 16,3 C 14,4 C 14,4 C 73 % 1020,1 hPa 0,0 l/m 0 min 0 min 0 W/m 2,3 km/h (1 Bft) 100,00 %
30.08.2018 21:20 16,3 C 14,4 C 14,4 C 73 % 1020,1 hPa 0,0 l/m 0 min 0 min 0 W/m 4,5 km/h (1 Bft) 97,83 %
30.08.2018 21:22 16,2 C 14,4 C 14,4 C 73 % 1020,1 hPa 0,0 l/m 0 min 0 min 0 W/m 0,0 km/h (0 Bft) 97,87 %
30.08.2018 21:24 16,2 C 13,9 C 14,4 C 73 % 1020,1 hPa 0,0 l/m 0 min 0 min 0 W/m 6,8 km/h (2 Bft) 97,87 %
30.08.2018 21:26 16,2 C 13,9 C 14,4 C 73 % 1020,1 hPa 0,0 l/m 0 min 0 min 0 W/m 6,8 km/h (2 Bft) 93,62 %
30.08.2018 21:28 16,1 C 13,9 C 14,4 C 74 % 1020,1 hPa 0,0 l/m 0 min 0 min 0 W/m 2,3 km/h (1 Bft) 97,87 %
30.08.2018 21:30 16,1 C 13,9 C 14,4 C 74 % 1020,1 hPa 0,0 l/m 0 min 0 min 0 W/m 0,0 km/h (0 Bft) 97,87 %
30.08.2018 21:32 16,0 C 13,9 C 14,4 C 75 % 1020,1 hPa 0,0 l/m 0 min 0 min 0 W/m 0,0 km/h (0 Bft) 95,65 %
30.08.2018 21:34 15,9 C 13,9 C 14,4 C 75 % 1020,2 hPa 0,0 l/m 0 min 0 min 0 W/m 0,0 km/h (0 Bft) 97,87 %
30.08.2018 21:36 15,9 C 13,9 C 13,9 C 76 % 1020,3 hPa 0,0 l/m 0 min 0 min 0 W/m 4,5 km/h (1 Bft) 95,74 %
30.08.2018 21:38 15,8 C 13,9 C 13,9 C 76 % 1020,3 hPa 0,0 l/m 0 min 0 min 0 W/m 0,0 km/h (0 Bft) 97,87 %
30.08.2018 21:40 15,8 C 13,9 C 13,9 C 76 % 1020,2 hPa 0,0 l/m 0 min 0 min 0 W/m 4,5 km/h (1 Bft) 97,87 %
30.08.2018 21:42 15,7 C 13,9 C 13,9 C 76 % 1020,2 hPa 0,0 l/m 0 min 0 min 0 W/m 0,0 km/h (0 Bft) 97,87 %
30.08.2018 21:44 15,7 C 13,9 C 13,9 C 76 % 1020,3 hPa 0,0 l/m 0 min 0 min 0 W/m 2,3 km/h (1 Bft) 97,83 %
30.08.2018 21:46 15,6 C 13,3 C 13,9 C 77 % 1020,3 hPa 0,0 l/m 0 min 0 min 0 W/m 4,5 km/h (1 Bft) 97,87 %
30.08.2018 21:48 15,6 C 13,9 C 13,9 C 77 % 1020,3 hPa 0,0 l/m 0 min 0 min 0 W/m 2,3 km/h (1 Bft) 97,87 %
30.08.2018 21:50 15,5 C 13,3 C 13,9 C 77 % 1020,3 hPa 0,0 l/m 0 min 0 min 0 W/m 0,0 km/h (0 Bft) 97,87 %
30.08.2018 21:52 15,5 C 13,3 C 13,9 C 77 % 1020,3 hPa 0,0 l/m 0 min 0 min 0 W/m 4,5 km/h (1 Bft) 97,87 %
30.08.2018 21:54 15,4 C 13,3 C 13,9 C 77 % 1020,2 hPa 0,0 l/m 0 min 0 min 0 W/m 2,3 km/h (1 Bft) 97,83 %
30.08.2018 21:56 15,4 C 13,3 C 13,9 C 78 % 1020,3 hPa 0,0 l/m 0 min 0 min 0 W/m 0,0 km/h (0 Bft) 97,87 %
30.08.2018 21:58 15,3 C 13,3 C 13,9 C 78 % 1020,3 hPa 0,0 l/m 0 min 0 min 0 W/m 2,3 km/h (1 Bft) 93,62 %
30.08.2018 22:00 15,3 C 13,3 C 13,9 C 78 % 1020,2 hPa 0,0 l/m 0 min 0 min 0 W/m 0,0 km/h (0 Bft) 95,74 %
30.08.2018 22:02 15,2 C 13,3 C 13,9 C 78 % 1020,3 hPa 0,0 l/m 0 min 0 min 0 W/m 4,5 km/h (1 Bft) 95,83 %
30.08.2018 22:04 15,2 C 13,3 C 13,9 C 78 % 1020,3 hPa 0,0 l/m 0 min 0 min 0 W/m 0,0 km/h (0 Bft) 95,74 %
30.08.2018 22:06 15,2 C 13,3 C 13,9 C 78 % 1020,3 hPa 0,0 l/m 0 min 0 min 0 W/m 2,3 km/h (1 Bft) 97,83 %
30.08.2018 22:08 15,1 C 13,3 C 13,9 C 78 % 1020,3 hPa 0,0 l/m 0 min 0 min 0 W/m 2,3 km/h (1 Bft) 97,87 %
30.08.2018 22:10 15,1 C 13,3 C 13,9 C 78 % 1020,3 hPa 0,0 l/m 0 min 0 min 0 W/m 2,3 km/h (1 Bft) 97,87 %
30.08.2018 22:12 15,1 C 13,3 C 13,9 C 78 % 1020,4 hPa 0,0 l/m 0 min 0 min 0 W/m 0,0 km/h (0 Bft) 97,87 %
30.08.2018 22:14 15,0 C 13,3 C 13,9 C 78 % 1020,3 hPa 0,0 l/m 0 min 0 min 0 W/m 0,0 km/h (0 Bft) 97,87 %
30.08.2018 22:16 15,0 C 13,3 C 13,3 C 79 % 1020,3 hPa 0,0 l/m 0 min 0 min 0 W/m 2,3 km/h (1 Bft) 97,56 %
30.08.2018 22:18 14,9 C 13,3 C 13,3 C 79 % 1020,3 hPa 0,0 l/m 0 min 0 min 0 W/m 0,0 km/h (0 Bft) 97,87 %
30.08.2018 22:20 14,9 C 12,8 C 13,3 C 79 % 1020,4 hPa 0,0 l/m 0 min 0 min 0 W/m 0,0 km/h (0 Bft) 96,15 %
30.08.2018 22:22 14,9 C 12,8 C 13,3 C 79 % 1020,3 hPa 0,0 l/m 0 min 0 min 0 W/m 0,0 km/h (0 Bft) 94,12 %
30.08.2018 22:24 14,8 C 12,8 C 13,3 C 79 % 1020,3 hPa 0,0 l/m 0 min 0 min 0 W/m 0,0 km/h (0 Bft) 97,87 %
30.08.2018 22:26 14,8 C 12,8 C 13,3 C 80 % 1020,3 hPa 0,0 l/m 0 min 0 min 0 W/m 0,0 km/h (0 Bft) 95,74 %
30.08.2018 22:28 14,8 C 12,8 C 13,3 C 80 % 1020,3 hPa 0,0 l/m 0 min 0 min 0 W/m 0,0 km/h (0 Bft) 97,83 %
30.08.2018 22:30 14,7 C 12,8 C 13,3 C 80 % 1020,3 hPa 0,0 l/m 0 min 0 min 0 W/m 0,0 km/h (0 Bft) 95,74 %
30.08.2018 22:32 14,7 C 12,8 C 13,3 C 81 % 1020,3 hPa 0,0 l/m 0 min 0 min 0 W/m 0,0 km/h (0 Bft) 97,87 %
30.08.2018 22:34 14,7 C 12,8 C 13,3 C 81 % 1020,2 hPa 0,0 l/m 0 min 0 min 0 W/m 0,0 km/h (0 Bft) 95,74 %
30.08.2018 22:36 14,6 C 12,8 C 12,8 C 81 % 1020,3 hPa 0,0 l/m 0 min 0 min 0 W/m 0,0 km/h (0 Bft) 89,36 %
30.08.2018 22:38 14,6 C 12,8 C 12,8 C 81 % 1020,2 hPa 0,0 l/m 0 min 0 min 0 W/m 4,5 km/h (1 Bft) 91,49 %
30.08.2018 22:40 14,5 C 12,8 C 12,8 C 81 % 1020,3 hPa 0,0 l/m 0 min 0 min 0 W/m 4,5 km/h (1 Bft) 95,65 %
30.08.2018 22:42 14,4 C 12,8 C 13,3 C 81 % 1020,3 hPa 0,0 l/m 0 min 0 min 0 W/m 0,0 km/h (0 Bft) 95,74 %
30.08.2018 22:44 14,4 C 12,2 C 13,3 C 81 % 1020,3 hPa 0,0 l/m 0 min 0 min 0 W/m 2,3 km/h (1 Bft) 95,74 %
30.08.2018 22:46 14,4 C 12,8 C 13,3 C 81 % 1020,3 hPa 0,0 l/m 0 min 0 min 0 W/m 4,5 km/h (1 Bft) 95,74 %
30.08.2018 22:48 14,3 C 12,8 C 13,3 C 82 % 1020,3 hPa 0,0 l/m 0 min 0 min 0 W/m 2,3 km/h (1 Bft) 95,74 %
30.08.2018 22:50 14,3 C 12,8 C 13,3 C 82 % 1020,3 hPa 0,0 l/m 0 min 0 min 0 W/m 0,0 km/h (0 Bft) 95,74 %
30.08.2018 22:52 14,2 C 12,8 C 13,3 C 82 % 1020,3 hPa 0,0 l/m 0 min 0 min 0 W/m 0,0 km/h (0 Bft) 95,74 %
30.08.2018 22:54 14,2 C 12,2 C 13,3 C 82 % 1020,3 hPa 0,0 l/m 0 min 0 min 0 W/m 0,0 km/h (0 Bft) 97,87 %
30.08.2018 22:56 14,2 C 12,8 C 13,3 C 82 % 1020,3 hPa 0,0 l/m 0 min 0 min 0 W/m 0,0 km/h (0 Bft) 93,62 %
30.08.2018 22:58 14,2 C 12,8 C 13,3 C 82 % 1020,3 hPa 0,0 l/m 0 min 0 min 0 W/m 0,0 km/h (0 Bft) 95,74 %
30.08.2018 23:00 14,2 C 12,8 C 13,3 C 83 % 1020,3 hPa 0,0 l/m 0 min 0 min 0 W/m 0,0 km/h (0 Bft) 95,74 %
30.08.2018 23:02 14,2 C 12,8 C 13,3 C 83 % 1020,3 hPa 0,0 l/m 0 min 0 min 0 W/m 0,0 km/h (0 Bft) 95,74 %
30.08.2018 23:04 14,2 C 12,8 C 13,3 C 83 % 1020,3 hPa 0,0 l/m 0 min 0 min 0 W/m 0,0 km/h (0 Bft) 97,83 %
30.08.2018 23:06 14,1 C 12,8 C 13,3 C 83 % 1020,4 hPa 0,0 l/m 0 min 0 min 0 W/m 0,0 km/h (0 Bft) 97,87 %
30.08.2018 23:08 14,1 C 12,8 C 13,3 C 83 % 1020,3 hPa 0,0 l/m 0 min 0 min 0 W/m 0,0 km/h (0 Bft) 95,74 %
30.08.2018 23:10 14,0 C 12,8 C 12,8 C 83 % 1020,4 hPa 0,0 l/m 0 min 0 min 0 W/m 0,0 km/h (0 Bft) 97,87 %
30.08.2018 23:12 14,0 C 12,8 C 12,8 C 83 % 1020,4 hPa 0,0 l/m 0 min 0 min 0 W/m 0,0 km/h (0 Bft) 97,87 %
30.08.2018 23:14 13,9 C 12,8 C 12,8 C 82 % 1020,4 hPa 0,0 l/m 0 min 0 min 0 W/m 2,3 km/h (1 Bft) 97,83 %
30.08.2018 23:16 13,9 C 12,2 C 12,8 C 82 % 1020,4 hPa 0,0 l/m 0 min 0 min 0 W/m 0,0 km/h (0 Bft) 97,87 %
30.08.2018 23:18 13,9 C 12,2 C 12,8 C 83 % 1020,4 hPa 0,0 l/m 0 min 0 min 0 W/m 2,3 km/h (1 Bft) 97,87 %
30.08.2018 23:20 13,9 C 12,2 C 12,8 C 83 % 1020,4 hPa 0,0 l/m 0 min 0 min 0 W/m 0,0 km/h (0 Bft) 97,87 %
30.08.2018 23:22 13,8 C 12,2 C 12,8 C 83 % 1020,4 hPa 0,0 l/m 0 min 0 min 0 W/m 0,0 km/h (0 Bft) 97,92 %
30.08.2018 23:24 13,8 C 12,2 C 12,8 C 83 % 1020,3 hPa 0,0 l/m 0 min 0 min 0 W/m 0,0 km/h (0 Bft) 95,74 %
30.08.2018 23:26 13,8 C 12,2 C 12,8 C 83 % 1020,3 hPa 0,0 l/m 0 min 0 min 0 W/m 0,0 km/h (0 Bft) 93,48 %
30.08.2018 23:28 13,8 C 12,2 C 12,8 C 83 % 1020,4 hPa 0,0 l/m 0 min 0 min 0 W/m 2,3 km/h (1 Bft) 95,74 %
30.08.2018 23:30 13,7 C 12,2 C 12,8 C 83 % 1020,4 hPa 0,0 l/m 0 min 0 min 0 W/m 0,0 km/h (0 Bft) 97,87 %
30.08.2018 23:32 13,7 C 12,2 C 12,8 C 83 % 1020,4 hPa 0,0 l/m 0 min 0 min 0 W/m 0,0 km/h (0 Bft) 93,62 %
30.08.2018 23:34 13,7 C 12,2 C 12,8 C 83 % 1020,4 hPa 0,0 l/m 0 min 0 min 0 W/m 2,3 km/h (1 Bft) 97,87 %
30.08.2018 23:36 13,7 C 12,2 C 12,8 C 83 % 1020,3 hPa 0,0 l/m 0 min 0 min 0 W/m 0,0 km/h (0 Bft) 93,62 %
30.08.2018 23:38 13,6 C 12,2 C 12,8 C 83 % 1020,4 hPa 0,0 l/m 0 min 0 min 0 W/m 0,0 km/h (0 Bft) 97,83 %
30.08.2018 23:40 13,6 C 12,2 C 12,8 C 83 % 1020,4 hPa 0,0 l/m 0 min 0 min 0 W/m 2,3 km/h (1 Bft) 95,74 %
30.08.2018 23:42 13,6 C 12,2 C 12,8 C 83 % 1020,4 hPa 0,0 l/m 0 min 0 min 0 W/m 2,3 km/h (1 Bft) 95,74 %
30.08.2018 23:44 13,6 C 12,2 C 12,8 C 84 % 1020,4 hPa 0,0 l/m 0 min 0 min 0 W/m 0,0 km/h (0 Bft) 95,74 %
30.08.2018 23:46 13,6 C 12,2 C 12,8 C 84 % 1020,4 hPa 0,0 l/m 0 min 0 min 0 W/m 0,0 km/h (0 Bft) 95,74 %
30.08.2018 23:48 13,5 C 12,2 C 12,8 C 84 % 1020,3 hPa 0,0 l/m 0 min 0 min 0 W/m 0,0 km/h (0 Bft) 95,74 %
30.08.2018 23:50 13,4 C 12,2 C 12,8 C 84 % 1020,4 hPa 0,0 l/m 0 min 0 min 0 W/m 4,5 km/h (1 Bft) 95,65 %
30.08.2018 23:52 13,4 C 11,7 C 12,8 C 84 % 1020,4 hPa 0,0 l/m 0 min 0 min 0 W/m 2,3 km/h (1 Bft) 95,74 %
30.08.2018 23:54 13,4 C 11,7 C 12,8 C 84 % 1020,4 hPa 0,0 l/m 0 min 0 min 0 W/m 0,0 km/h (0 Bft) 95,74 %
30.08.2018 23:56 13,4 C 11,7 C 12,8 C 84 % 1020,4 hPa 0,0 l/m 0 min 0 min 0 W/m 0,0 km/h (0 Bft) 97,87 %
30.08.2018 23:58 13,4 C 11,7 C 12,2 C 84 % 1020,4 hPa 0,0 l/m 0 min 0 min 0 W/m 2,3 km/h (1 Bft) 97,87 %
_ Min-Zeit 23:50 23:52 23:58 16:52 00:00 - - - - 02:54 22:36
Minimum _ 13,4 C 11,7 C 12,2 C 54 % 1012,5 hPa - - - - 0,0 km/h (0 Bft) 89,36 %
_ Max-Zeit 17:36 11:44 17:38 05:36 22:12 00:22 18:52 00:08 13:44 00:04 00:30
Maximum _ 21,0 C 26,1 C 19,4 C 99 % 1020,4 hPa 0,4 l/m 4 min 4 min 838 W/m 24,8 km/h
W-NW (4 Bft)
100,00 %
Durchschnitt _ 16,7 C 16,8 C 15,4 C 82 % 1017,9 hPa #2,8 l/m #6:06 h #1:36 h 295 W/m 7,7 km/h (2 Bft) 97,52 %
© 2018 W. Hausmann